Time,TemperatureF,DewpointF,PressureIn,WindDirection,WindDirectionDegrees,WindSpeedMPH,WindSpeedGustMPH,Humidity,HourlyPrecipIn,Conditions,Clouds,dailyrainin,SoftwareType,DateUTC
2013-02-22 00:00:00,69.6,65.8,30.05,East,90,1.0,2.0,88,0.00,,,0.00,meteohub,2013-02-22 05:00:00,
2013-02-22 00:01:00,69.6,65.8,30.05,NE,45,1.0,2.0,88,0.00,,,0.00,meteohub,2013-02-22 05:01:00,
2013-02-22 00:06:00,69.4,65.7,30.05,North,0,1.0,2.0,88,0.00,,,0.00,meteohub,2013-02-22 05:06:00,
2013-02-22 00:07:00,69.4,65.7,30.05,North,0,0.0,2.0,88,0.00,,,0.00,meteohub,2013-02-22 05:07:00,
2013-02-22 00:12:00,69.1,65.3,30.05,NE,45,1.0,2.0,88,0.00,,,0.00,meteohub,2013-02-22 05:12:00,
2013-02-22 00:13:00,69.1,65.3,30.05,NE,45,0.0,2.0,88,0.00,,,0.00,meteohub,2013-02-22 05:13:00,
2013-02-22 00:17:00,68.9,65.1,30.05,North,0,0.0,2.0,88,0.00,,,0.00,meteohub,2013-02-22 05:17:00,
2013-02-22 00:18:00,68.9,65.1,30.05,North,0,0.0,2.0,88,0.00,,,0.00,meteohub,2013-02-22 05:18:00,
2013-02-22 00:20:00,68.7,64.9,30.05,SE,135,1.0,2.0,88,0.00,,,0.00,meteohub,2013-02-22 05:20:00,
2013-02-22 00:22:00,68.7,64.9,30.05,NE,45,1.0,2.0,88,0.00,,,0.00,meteohub,2013-02-22 05:22:00,
2013-02-22 00:24:00,68.5,64.8,30.04,East,90,0.0,2.0,88,0.00,,,0.00,meteohub,2013-02-22 05:24:00,
2013-02-22 00:26:00,68.4,64.6,30.04,SW,225,0.0,1.0,88,0.00,,,0.00,meteohub,2013-02-22 05:26:00,
2013-02-22 00:27:00,68.4,64.6,30.04,East,90,0.0,1.0,88,0.00,,,0.00,meteohub,2013-02-22 05:27:00,
2013-02-22 00:29:00,68.2,64.8,30.04,North,0,0.0,1.0,89,0.00,,,0.00,meteohub,2013-02-22 05:29:00,
2013-02-22 00:32:00,68.2,64.8,30.04,East,90,0.0,1.0,89,0.00,,,0.00,meteohub,2013-02-22 05:32:00,
2013-02-22 00:33:00,68.0,64.6,30.04,West,270,1.0,1.0,89,0.00,,,0.00,meteohub,2013-02-22 05:33:00,
2013-02-22 00:35:00,68.0,64.6,30.04,North,0,0.0,1.0,89,0.00,,,0.00,meteohub,2013-02-22 05:35:00,
2013-02-22 00:37:00,67.8,64.8,30.04,East,90,0.0,1.0,90,0.00,,,0.00,meteohub,2013-02-22 05:37:00,
2013-02-22 00:38:00,67.8,64.8,30.04,East,90,0.0,1.0,90,0.00,,,0.00,meteohub,2013-02-22 05:38:00,
2013-02-22 00:40:00,67.8,64.8,30.04,North,0,0.0,1.0,90,0.00,,,0.00,meteohub,2013-02-22 05:40:00,
2013-02-22 00:41:00,67.8,64.8,30.04,North,0,0.0,1.0,90,0.00,,,0.00,meteohub,2013-02-22 05:41:00,
2013-02-22 00:43:00,67.6,64.6,30.04,NE,45,0.0,1.0,90,0.00,,,0.00,meteohub,2013-02-22 05:43:00,
2013-02-22 00:45:00,67.5,64.4,30.04,NE,45,0.0,1.0,90,0.00,,,0.00,meteohub,2013-02-22 05:45:00,
2013-02-22 00:46:00,67.5,64.8,30.04,NE,45,0.0,1.0,91,0.00,,,0.00,meteohub,2013-02-22 05:46:00,
2013-02-22 00:47:00,67.5,64.8,30.04,SE,135,1.0,1.0,91,0.00,,,0.00,meteohub,2013-02-22 05:47:00,
2013-02-22 00:50:00,67.3,64.6,30.04,NE,45,1.0,1.0,91,0.00,,,0.00,meteohub,2013-02-22 05:50:00,
2013-02-22 00:52:00,67.3,64.6,30.04,NE,45,0.0,1.0,91,0.00,,,0.00,meteohub,2013-02-22 05:52:00,
2013-02-22 00:53:00,67.3,64.6,30.03,NE,45,0.0,1.0,91,0.00,,,0.00,meteohub,2013-02-22 05:53:00,
2013-02-22 00:55:00,67.3,64.6,30.04,NW,315,1.0,1.0,91,0.00,,,0.00,meteohub,2013-02-22 05:55:00,
2013-02-22 00:57:00,67.1,64.4,30.04,East,90,0.0,1.0,91,0.00,,,0.00,meteohub,2013-02-22 05:57:00,
2013-02-22 00:58:00,67.1,64.4,30.04,North,0,1.0,1.0,91,0.00,,,0.00,meteohub,2013-02-22 05:58:00,
2013-02-22 00:59:00,67.1,64.4,30.04,NE,45,1.0,1.0,91,0.00,,,0.00,meteohub,2013-02-22 05:59:00,
2013-02-22 01:02:00,67.1,64.8,30.04,NE,45,0.0,1.0,92,0.00,,,0.00,meteohub,2013-02-22 06:02:00,
2013-02-22 01:04:00,66.9,64.6,30.04,NE,45,1.0,1.0,92,0.00,,,0.00,meteohub,2013-02-22 06:04:00,
2013-02-22 01:06:00,66.9,64.6,30.04,NE,45,1.0,1.0,92,0.00,,,0.00,meteohub,2013-02-22 06:06:00,
2013-02-22 01:07:00,66.9,64.6,30.04,East,90,2.0,2.0,92,0.00,,,0.00,meteohub,2013-02-22 06:07:00,
2013-02-22 01:08:00,66.7,64.4,30.03,NE,45,2.0,2.0,92,0.00,,,0.00,meteohub,2013-02-22 06:08:00,
2013-02-22 01:10:00,66.7,64.4,30.04,SE,135,1.0,1.0,92,0.00,,,0.00,meteohub,2013-02-22 06:10:00,
2013-02-22 01:12:00,66.7,64.4,30.03,SE,135,0.0,2.0,92,0.00,,,0.00,meteohub,2013-02-22 06:12:00,
2013-02-22 01:13:00,66.7,64.4,30.03,SE,135,0.0,2.0,92,0.00,,,0.00,meteohub,2013-02-22 06:13:00,
2013-02-22 01:18:00,66.6,64.2,30.03,NW,315,0.0,2.0,92,0.00,,,0.00,meteohub,2013-02-22 06:18:00,
2013-02-22 01:19:00,66.6,64.2,30.03,NE,45,1.0,2.0,92,0.00,,,0.00,meteohub,2013-02-22 06:19:00,
2013-02-22 01:20:00,66.6,64.4,30.04,North,0,1.0,2.0,93,0.00,,,0.00,meteohub,2013-02-22 06:20:00,
2013-02-22 01:23:00,66.6,64.4,30.04,North,0,0.0,2.0,93,0.00,,,0.00,meteohub,2013-02-22 06:23:00,
2013-02-22 01:24:00,66.4,64.2,30.04,North,0,1.0,2.0,93,0.00,,,0.00,meteohub,2013-02-22 06:24:00,
2013-02-22 01:25:00,66.4,64.2,30.03,North,0,1.0,2.0,93,0.00,,,0.00,meteohub,2013-02-22 06:25:00,
2013-02-22 01:26:00,66.4,64.2,30.04,North,0,0.0,1.0,93,0.00,,,0.00,meteohub,2013-02-22 06:26:00,
2013-02-22 01:29:00,66.4,64.2,30.04,North,0,1.0,1.0,93,0.00,,,0.00,meteohub,2013-02-22 06:29:00,
2013-02-22 01:30:00,66.4,64.2,30.04,North,0,0.0,1.0,93,0.00,,,0.00,meteohub,2013-02-22 06:30:00,
2013-02-22 01:31:00,66.4,64.2,30.04,North,0,0.0,1.0,93,0.00,,,0.00,meteohub,2013-02-22 06:31:00,
2013-02-22 01:32:00,66.4,64.2,30.04,North,0,0.0,1.0,93,0.00,,,0.00,meteohub,2013-02-22 06:32:00,
2013-02-22 01:34:00,66.4,64.2,30.04,North,0,0.0,1.0,93,0.00,,,0.00,meteohub,2013-02-22 06:34:00,
2013-02-22 01:35:00,66.4,64.2,30.04,North,0,0.0,1.0,93,0.00,,,0.00,meteohub,2013-02-22 06:35:00,
2013-02-22 01:36:00,66.4,64.2,30.04,North,0,0.0,1.0,93,0.00,,,0.00,meteohub,2013-02-22 06:36:00,
2013-02-22 01:38:00,66.2,64.0,30.04,North,0,0.0,1.0,93,0.00,,,0.00,meteohub,2013-02-22 06:38:00,
2013-02-22 01:40:00,66.2,64.0,30.04,North,0,0.0,1.0,93,0.00,,,0.00,meteohub,2013-02-22 06:40:00,
2013-02-22 01:44:00,66.0,64.6,30.04,NE,45,1.0,1.0,95,0.00,,,0.00,meteohub,2013-02-22 06:44:00,
2013-02-22 01:45:00,66.0,64.6,30.04,NE,45,1.0,1.0,95,0.00,,,0.00,meteohub,2013-02-22 06:45:00,
2013-02-22 01:46:00,66.0,64.6,30.04,NE,45,0.0,1.0,95,0.00,,,0.00,meteohub,2013-02-22 06:46:00,
2013-02-22 01:47:00,66.0,64.6,30.04,NE,45,0.0,1.0,95,0.00,,,0.00,meteohub,2013-02-22 06:47:00,
2013-02-22 01:50:00,66.0,64.6,30.04,NE,45,1.0,1.0,95,0.00,,,0.00,meteohub,2013-02-22 06:50:00,
2013-02-22 01:52:00,66.0,64.6,30.03,NE,45,0.0,1.0,95,0.00,,,0.00,meteohub,2013-02-22 06:52:00,
2013-02-22 01:53:00,66.0,64.6,30.04,NE,45,0.0,1.0,95,0.00,,,0.00,meteohub,2013-02-22 06:53:00,
2013-02-22 01:56:00,65.8,64.4,30.04,NE,45,0.0,1.0,95,0.00,,,0.00,meteohub,2013-02-22 06:56:00,
2013-02-22 01:57:00,65.8,64.4,30.04,NE,45,0.0,1.0,95,0.00,,,0.00,meteohub,2013-02-22 06:57:00,
2013-02-22 01:58:00,65.8,64.4,30.03,NE,45,0.0,1.0,95,0.00,,,0.00,meteohub,2013-02-22 06:58:00,
2013-02-22 02:01:00,65.8,64.4,30.03,NE,45,0.0,1.0,95,0.00,,,0.00,meteohub,2013-02-22 07:01:00,
2013-02-22 02:03:00,65.8,64.4,30.04,NE,45,0.0,1.0,95,0.00,,,0.00,meteohub,2013-02-22 07:03:00,
2013-02-22 02:04:00,65.8,64.4,30.03,NE,45,0.0,1.0,95,0.00,,,0.00,meteohub,2013-02-22 07:04:00,
2013-02-22 02:06:00,65.8,64.4,30.03,NE,45,0.0,1.0,95,0.00,,,0.00,meteohub,2013-02-22 07:06:00,
2013-02-22 02:07:00,65.8,64.4,30.03,NE,45,0.0,1.0,95,0.00,,,0.00,meteohub,2013-02-22 07:07:00,
2013-02-22 02:09:00,65.8,64.4,30.03,NE,45,1.0,1.0,95,0.00,,,0.00,meteohub,2013-02-22 07:09:00,
2013-02-22 02:10:00,65.8,64.4,30.03,SE,135,2.0,2.0,95,0.00,,,0.00,meteohub,2013-02-22 07:10:00,
2013-02-22 02:14:00,66.0,64.6,30.03,North,0,0.0,1.0,95,0.00,,,0.00,meteohub,2013-02-22 07:14:00,
2013-02-22 02:16:00,66.0,64.6,30.03,NW,315,0.0,2.0,95,0.00,,,0.00,meteohub,2013-02-22 07:16:00,
2013-02-22 02:19:00,66.0,64.6,30.03,NE,45,0.0,2.0,95,0.00,,,0.00,meteohub,2013-02-22 07:19:00,
2013-02-22 02:20:00,66.0,64.8,30.03,NE,45,0.0,2.0,96,0.00,,,0.00,meteohub,2013-02-22 07:20:00,
2013-02-22 02:22:00,66.2,64.8,30.03,East,90,1.0,2.0,95,0.00,,,0.00,meteohub,2013-02-22 07:22:00,
2013-02-22 02:24:00,66.2,64.8,30.03,SE,135,0.0,2.0,95,0.00,,,0.00,meteohub,2013-02-22 07:24:00,
2013-02-22 02:25:00,66.2,64.8,30.03,NE,45,0.0,2.0,95,0.00,,,0.00,meteohub,2013-02-22 07:25:00,
2013-02-22 02:27:00,66.2,64.8,30.03,East,90,1.0,2.0,95,0.00,,,0.00,meteohub,2013-02-22 07:27:00,
2013-02-22 02:28:00,66.2,64.8,30.03,South,180,0.0,2.0,95,0.00,,,0.00,meteohub,2013-02-22 07:28:00,
2013-02-22 02:30:00,66.4,64.9,30.03,NE,45,1.0,2.0,95,0.00,,,0.00,meteohub,2013-02-22 07:30:00,
2013-02-22 02:34:00,66.4,64.9,30.03,NE,45,0.0,2.0,95,0.00,,,0.00,meteohub,2013-02-22 07:34:00,
2013-02-22 02:35:00,66.4,64.9,30.03,NE,45,0.0,1.0,95,0.00,,,0.00,meteohub,2013-02-22 07:35:00,
2013-02-22 02:36:00,66.4,64.9,30.03,NE,45,0.0,1.0,95,0.00,,,0.00,meteohub,2013-02-22 07:36:00,
2013-02-22 02:39:00,66.4,64.9,30.03,East,90,0.0,1.0,95,0.00,,,0.00,meteohub,2013-02-22 07:39:00,
2013-02-22 02:41:00,66.4,64.9,30.03,NE,45,1.0,2.0,95,0.00,,,0.00,meteohub,2013-02-22 07:41:00,
2013-02-22 02:42:00,66.4,64.9,30.03,East,90,0.0,2.0,95,0.00,,,0.00,meteohub,2013-02-22 07:42:00,
2013-02-22 02:46:00,66.4,64.9,30.03,SE,135,0.0,2.0,95,0.00,,,0.00,meteohub,2013-02-22 07:46:00,
2013-02-22 02:47:00,66.4,64.9,30.03,SE,135,0.0,2.0,95,0.00,,,0.00,meteohub,2013-02-22 07:47:00,
2013-02-22 02:50:00,66.4,64.9,30.02,East,90,1.0,2.0,95,0.00,,,0.00,meteohub,2013-02-22 07:50:00,
2013-02-22 02:52:00,66.4,64.9,30.02,East,90,1.0,2.0,95,0.00,,,0.00,meteohub,2013-02-22 07:52:00,
2013-02-22 02:53:00,66.4,64.9,30.02,East,90,2.0,2.0,95,0.00,,,0.00,meteohub,2013-02-22 07:53:00,
2013-02-22 02:54:00,66.4,64.9,30.02,SE,135,2.0,2.0,95,0.00,,,0.00,meteohub,2013-02-22 07:54:00,
2013-02-22 02:56:00,66.6,65.1,30.02,SE,135,1.0,2.0,95,0.00,,,0.00,meteohub,2013-02-22 07:56:00,
2013-02-22 02:57:00,66.6,65.1,30.03,East,90,1.0,2.0,95,0.00,,,0.00,meteohub,2013-02-22 07:57:00,
2013-02-22 02:59:00,66.6,65.1,30.02,NE,45,1.0,2.0,95,0.00,,,0.00,meteohub,2013-02-22 07:59:00,
2013-02-22 03:00:00,66.6,65.1,30.02,NE,45,2.0,2.0,95,0.00,,,0.00,meteohub,2013-02-22 08:00:00,
2013-02-22 03:02:00,66.6,65.1,30.02,NE,45,0.0,2.0,95,0.00,,,0.00,meteohub,2013-02-22 08:02:00,
2013-02-22 03:04:00,66.6,65.1,30.03,NE,45,1.0,2.0,95,0.00,,,0.00,meteohub,2013-02-22 08:04:00,
2013-02-22 03:05:00,66.6,65.1,30.03,NE,45,0.0,2.0,95,0.00,,,0.00,meteohub,2013-02-22 08:05:00,
2013-02-22 03:06:00,66.6,65.1,30.03,NE,45,0.0,2.0,95,0.00,,,0.00,meteohub,2013-02-22 08:06:00,
2013-02-22 03:09:00,66.6,65.1,30.03,NE,45,0.0,2.0,95,0.00,,,0.00,meteohub,2013-02-22 08:09:00,
2013-02-22 03:10:00,66.4,64.9,30.03,NE,45,0.0,2.0,95,0.00,,,0.00,meteohub,2013-02-22 08:10:00,
2013-02-22 03:11:00,66.4,64.9,30.03,NE,45,2.0,2.0,95,0.00,,,0.00,meteohub,2013-02-22 08:11:00,
2013-02-22 03:12:00,66.4,64.9,30.03,NE,45,1.0,2.0,95,0.00,,,0.00,meteohub,2013-02-22 08:12:00,
2013-02-22 03:14:00,66.4,64.9,30.03,NE,45,1.0,2.0,95,0.00,,,0.00,meteohub,2013-02-22 08:14:00,
2013-02-22 03:17:00,66.4,64.9,30.03,NE,45,0.0,2.0,95,0.00,,,0.00,meteohub,2013-02-22 08:17:00,
2013-02-22 03:18:00,66.2,64.8,30.03,North,0,1.0,2.0,95,0.00,,,0.00,meteohub,2013-02-22 08:18:00,
2013-02-22 03:19:00,66.2,64.8,30.02,North,0,0.0,2.0,95,0.00,,,0.00,meteohub,2013-02-22 08:19:00,
2013-02-22 03:23:00,66.0,64.8,30.03,NE,45,1.0,2.0,96,0.00,,,0.00,meteohub,2013-02-22 08:23:00,
2013-02-22 03:24:00,66.0,64.8,30.03,NE,45,0.0,2.0,96,0.00,,,0.00,meteohub,2013-02-22 08:24:00,
2013-02-22 03:25:00,65.8,64.6,30.03,NE,45,0.0,2.0,96,0.00,,,0.00,meteohub,2013-02-22 08:25:00,
2013-02-22 03:27:00,65.8,64.6,30.03,NE,45,0.0,2.0,96,0.00,,,0.00,meteohub,2013-02-22 08:27:00,
2013-02-22 03:28:00,65.8,64.6,30.03,NE,45,0.0,2.0,96,0.00,,,0.00,meteohub,2013-02-22 08:28:00,
2013-02-22 03:31:00,65.8,64.6,30.03,NE,45,0.0,1.0,96,0.00,,,0.00,meteohub,2013-02-22 08:31:00,
2013-02-22 03:32:00,65.8,64.6,30.04,NE,45,0.0,1.0,96,0.00,,,0.00,meteohub,2013-02-22 08:32:00,
2013-02-22 03:33:00,65.8,64.6,30.03,NE,45,0.0,1.0,96,0.00,,,0.00,meteohub,2013-02-22 08:33:00,
2013-02-22 03:37:00,65.7,64.4,30.03,NE,45,0.0,1.0,96,0.00,,,0.00,meteohub,2013-02-22 08:37:00,
2013-02-22 03:38:00,65.7,64.4,30.03,NE,45,0.0,1.0,96,0.00,,,0.00,meteohub,2013-02-22 08:38:00,
2013-02-22 03:39:00,65.5,64.2,30.03,NE,45,0.0,1.0,96,0.00,,,0.00,meteohub,2013-02-22 08:39:00,
2013-02-22 03:43:00,65.3,64.0,30.03,East,90,1.0,0.0,96,0.00,,,0.00,meteohub,2013-02-22 08:43:00,
2013-02-22 03:44:00,65.3,64.0,30.03,NE,45,1.0,0.0,96,0.00,,,0.00,meteohub,2013-02-22 08:44:00,
2013-02-22 03:45:00,65.3,64.0,30.03,NE,45,1.0,0.0,96,0.00,,,0.00,meteohub,2013-02-22 08:45:00,
2013-02-22 03:50:00,65.1,64.0,30.03,NE,45,0.0,1.0,96,0.00,,,0.00,meteohub,2013-02-22 08:50:00,
2013-02-22 03:51:00,65.1,64.0,30.03,NE,45,2.0,2.0,96,0.00,,,0.00,meteohub,2013-02-22 08:51:00,
2013-02-22 03:52:00,65.1,64.0,30.03,NE,45,1.0,1.0,96,0.00,,,0.00,meteohub,2013-02-22 08:52:00,
2013-02-22 03:56:00,64.9,63.9,30.04,East,90,0.0,2.0,96,0.00,,,0.00,meteohub,2013-02-22 08:56:00,
2013-02-22 03:57:00,64.9,63.9,30.03,East,90,0.0,2.0,96,0.00,,,0.00,meteohub,2013-02-22 08:57:00,
2013-02-22 03:59:00,64.9,63.9,30.03,East,90,0.0,2.0,96,0.00,,,0.00,meteohub,2013-02-22 08:59:00,
2013-02-22 04:00:00,64.9,63.9,30.04,East,90,0.0,2.0,96,0.00,,,0.00,meteohub,2013-02-22 09:00:00,
2013-02-22 04:02:00,64.9,63.9,30.04,NE,45,0.0,2.0,96,0.00,,,0.00,meteohub,2013-02-22 09:02:00,
2013-02-22 04:03:00,64.8,63.7,30.04,NE,45,0.0,2.0,96,0.00,,,0.00,meteohub,2013-02-22 09:03:00,
2013-02-22 04:06:00,64.8,63.7,30.04,NE,45,0.0,2.0,96,0.00,,,0.00,meteohub,2013-02-22 09:06:00,
2013-02-22 04:07:00,64.6,63.5,30.04,NE,45,0.0,2.0,96,0.00,,,0.00,meteohub,2013-02-22 09:07:00,
2013-02-22 04:09:00,64.6,63.5,30.04,NE,45,0.0,2.0,96,0.00,,,0.00,meteohub,2013-02-22 09:09:00,
2013-02-22 04:11:00,64.6,63.5,30.04,East,90,0.0,1.0,96,0.00,,,0.00,meteohub,2013-02-22 09:11:00,
2013-02-22 04:12:00,64.6,63.7,30.04,East,90,0.0,1.0,97,0.00,,,0.00,meteohub,2013-02-22 09:12:00,
2013-02-22 04:15:00,64.4,63.5,30.04,East,90,0.0,1.0,97,0.00,,,0.00,meteohub,2013-02-22 09:15:00,
2013-02-22 04:16:00,64.4,63.5,30.04,East,90,0.0,1.0,97,0.00,,,0.00,meteohub,2013-02-22 09:16:00,
2013-02-22 04:17:00,64.4,63.5,30.04,East,90,0.0,1.0,97,0.00,,,0.00,meteohub,2013-02-22 09:17:00,
2013-02-22 04:21:00,64.2,63.1,30.04,NE,45,0.0,1.0,96,0.00,,,0.00,meteohub,2013-02-22 09:21:00,
2013-02-22 04:22:00,64.2,63.1,30.04,NE,45,0.0,1.0,96,0.00,,,0.00,meteohub,2013-02-22 09:22:00,
2013-02-22 04:25:00,64.2,63.1,30.04,East,90,1.0,1.0,96,0.00,,,0.00,meteohub,2013-02-22 09:25:00,
2013-02-22 04:27:00,64.2,63.1,30.04,East,90,2.0,2.0,96,0.00,,,0.00,meteohub,2013-02-22 09:27:00,
2013-02-22 04:28:00,64.2,63.1,30.04,East,90,2.0,2.0,96,0.00,,,0.00,meteohub,2013-02-22 09:28:00,
2013-02-22 04:31:00,64.2,63.1,30.04,East,90,1.0,2.0,96,0.00,,,0.00,meteohub,2013-02-22 09:31:00,
2013-02-22 04:32:00,64.0,63.0,30.04,NE,45,1.0,2.0,96,0.00,,,0.00,meteohub,2013-02-22 09:32:00,
2013-02-22 04:33:00,64.0,63.0,30.04,East,90,1.0,2.0,96,0.00,,,0.00,meteohub,2013-02-22 09:33:00,
2013-02-22 04:34:00,64.0,63.0,30.04,East,90,1.0,2.0,96,0.00,,,0.00,meteohub,2013-02-22 09:34:00,
2013-02-22 04:37:00,64.0,63.0,30.04,East,90,1.0,2.0,96,0.00,,,0.00,meteohub,2013-02-22 09:37:00,
2013-02-22 04:39:00,64.0,63.0,30.04,East,90,1.0,2.0,96,0.00,,,0.00,meteohub,2013-02-22 09:39:00,
2013-02-22 04:43:00,64.0,63.0,30.04,SE,135,0.0,2.0,96,0.00,,,0.00,meteohub,2013-02-22 09:43:00,
2013-02-22 04:44:00,64.0,63.0,30.04,East,90,1.0,2.0,96,0.00,,,0.00,meteohub,2013-02-22 09:44:00,
2013-02-22 04:46:00,64.0,63.0,30.04,East,90,1.0,2.0,96,0.00,,,0.00,meteohub,2013-02-22 09:46:00,
2013-02-22 04:48:00,64.0,63.0,30.04,East,90,1.0,2.0,96,0.00,,,0.00,meteohub,2013-02-22 09:48:00,
2013-02-22 04:50:00,64.0,63.0,30.04,SE,135,1.0,2.0,96,0.00,,,0.00,meteohub,2013-02-22 09:50:00,
2013-02-22 04:52:00,64.0,63.0,30.04,NE,45,1.0,1.0,96,0.00,,,0.00,meteohub,2013-02-22 09:52:00,
2013-02-22 04:55:00,64.0,63.0,30.04,East,90,1.0,1.0,96,0.00,,,0.00,meteohub,2013-02-22 09:55:00,
2013-02-22 04:57:00,64.0,63.1,30.04,NE,45,1.0,2.0,97,0.00,,,0.00,meteohub,2013-02-22 09:57:00,
2013-02-22 04:58:00,64.0,63.1,30.04,SE,135,1.0,2.0,97,0.00,,,0.00,meteohub,2013-02-22 09:58:00,
2013-02-22 05:02:00,64.0,63.1,30.04,East,90,2.0,3.0,97,0.00,,,0.00,meteohub,2013-02-22 10:02:00,
2013-02-22 05:03:00,64.0,63.1,30.04,SE,135,0.0,3.0,97,0.00,,,0.00,meteohub,2013-02-22 10:03:00,
2013-02-22 05:05:00,64.2,63.3,30.04,NE,45,2.0,3.0,97,0.00,,,0.00,meteohub,2013-02-22 10:05:00,
2013-02-22 05:08:00,64.2,63.3,30.04,East,90,2.0,3.0,97,0.00,,,0.00,meteohub,2013-02-22 10:08:00,
2013-02-22 05:09:00,64.2,63.3,30.04,East,90,2.0,3.0,97,0.00,,,0.00,meteohub,2013-02-22 10:09:00,
2013-02-22 05:14:00,64.2,63.3,30.04,SE,135,1.0,3.0,97,0.00,,,0.00,meteohub,2013-02-22 10:14:00,
2013-02-22 05:16:00,64.2,63.3,30.04,East,90,2.0,3.0,97,0.00,,,0.00,meteohub,2013-02-22 10:16:00,
2013-02-22 05:17:00,64.2,63.3,30.04,North,0,2.0,3.0,97,0.00,,,0.00,meteohub,2013-02-22 10:17:00,
2013-02-22 05:19:00,64.2,63.3,30.04,SE,135,1.0,3.0,97,0.00,,,0.00,meteohub,2013-02-22 10:19:00,
2013-02-22 05:21:00,64.0,63.1,30.04,East,90,1.0,3.0,97,0.00,,,0.00,meteohub,2013-02-22 10:21:00,
2013-02-22 05:22:00,64.0,63.1,30.04,NE,45,2.0,3.0,97,0.00,,,0.00,meteohub,2013-02-22 10:22:00,
2013-02-22 05:25:00,64.0,63.1,30.04,East,90,1.0,3.0,97,0.00,,,0.00,meteohub,2013-02-22 10:25:00,
2013-02-22 05:27:00,64.0,63.1,30.04,NE,45,0.0,2.0,97,0.00,,,0.00,meteohub,2013-02-22 10:27:00,
2013-02-22 05:28:00,64.0,63.1,30.04,East,90,2.0,2.0,97,0.00,,,0.00,meteohub,2013-02-22 10:28:00,
2013-02-22 05:30:00,64.0,63.1,30.05,NE,45,2.0,2.0,97,0.00,,,0.00,meteohub,2013-02-22 10:30:00,
2013-02-22 05:32:00,64.0,63.1,30.04,East,90,2.0,2.0,97,0.00,,,0.00,meteohub,2013-02-22 10:32:00,
2013-02-22 05:35:00,63.9,63.0,30.05,East,90,3.0,3.0,97,0.00,,,0.00,meteohub,2013-02-22 10:35:00,
2013-02-22 05:37:00,63.9,63.0,30.05,East,90,1.0,2.0,97,0.00,,,0.00,meteohub,2013-02-22 10:37:00,
2013-02-22 05:38:00,63.9,63.0,30.05,East,90,2.0,2.0,97,0.00,,,0.00,meteohub,2013-02-22 10:38:00,
2013-02-22 05:43:00,63.9,63.0,30.05,East,90,1.0,3.0,97,0.00,,,0.00,meteohub,2013-02-22 10:43:00,
2013-02-22 05:44:00,63.9,63.0,30.06,NE,45,1.0,3.0,97,0.00,,,0.00,meteohub,2013-02-22 10:44:00,
2013-02-22 05:46:00,63.9,63.0,30.05,East,90,1.0,3.0,97,0.00,,,0.00,meteohub,2013-02-22 10:46:00,
2013-02-22 05:48:00,63.9,63.0,30.06,NE,45,2.0,3.0,97,0.00,,,0.00,meteohub,2013-02-22 10:48:00,
2013-02-22 05:50:00,63.9,63.0,30.06,East,90,1.0,3.0,97,0.00,,,0.00,meteohub,2013-02-22 10:50:00,
2013-02-22 05:51:00,63.9,63.0,30.05,East,90,1.0,3.0,97,0.00,,,0.00,meteohub,2013-02-22 10:51:00,
2013-02-22 05:52:00,63.9,63.0,30.05,East,90,1.0,3.0,97,0.00,,,0.00,meteohub,2013-02-22 10:52:00,
2013-02-22 05:53:00,63.9,63.0,30.06,North,0,2.0,3.0,97,0.00,,,0.00,meteohub,2013-02-22 10:53:00,
2013-02-22 05:56:00,63.9,63.0,30.05,NE,45,1.0,2.0,97,0.00,,,0.00,meteohub,2013-02-22 10:56:00,
2013-02-22 05:57:00,63.9,63.0,30.05,NE,45,1.0,2.0,97,0.00,,,0.00,meteohub,2013-02-22 10:57:00,
2013-02-22 06:00:00,63.9,63.0,30.06,NE,45,1.0,2.0,97,0.00,,,0.00,meteohub,2013-02-22 11:00:00,
2013-02-22 06:01:00,63.9,63.0,30.06,NE,45,1.0,2.0,97,0.00,,,0.00,meteohub,2013-02-22 11:01:00,
2013-02-22 06:02:00,63.9,63.0,30.06,East,90,1.0,2.0,97,0.00,,,0.00,meteohub,2013-02-22 11:02:00,
2013-02-22 06:03:00,63.9,63.0,30.05,East,90,1.0,2.0,97,0.00,,,0.00,meteohub,2013-02-22 11:03:00,
2013-02-22 06:06:00,63.9,63.0,30.06,NE,45,1.0,2.0,97,0.00,,,0.00,meteohub,2013-02-22 11:06:00,
2013-02-22 06:07:00,63.9,63.0,30.06,NE,45,1.0,2.0,97,0.00,,,0.00,meteohub,2013-02-22 11:07:00,
2013-02-22 06:08:00,63.9,63.0,30.06,NE,45,1.0,2.0,97,0.00,,,0.00,meteohub,2013-02-22 11:08:00,
2013-02-22 06:10:00,63.9,63.0,30.06,East,90,1.0,2.0,97,0.00,,,0.00,meteohub,2013-02-22 11:10:00,
2013-02-22 06:12:00,63.9,63.0,30.06,NE,45,2.0,2.0,97,0.00,,,0.00,meteohub,2013-02-22 11:12:00,
2013-02-22 06:13:00,63.9,63.0,30.05,NE,45,1.0,2.0,97,0.00,,,0.00,meteohub,2013-02-22 11:13:00,
2013-02-22 06:15:00,63.9,63.0,30.06,NE,45,2.0,2.0,97,0.00,,,0.00,meteohub,2013-02-22 11:15:00,
2013-02-22 06:17:00,63.9,63.0,30.06,East,90,1.0,2.0,97,0.00,,,0.00,meteohub,2013-02-22 11:17:00,
2013-02-22 06:18:00,63.9,63.0,30.06,East,90,1.0,2.0,97,0.00,,,0.00,meteohub,2013-02-22 11:18:00,
2013-02-22 06:19:00,63.9,63.0,30.06,East,90,2.0,2.0,97,0.00,,,0.00,meteohub,2013-02-22 11:19:00,
2013-02-22 06:20:00,63.9,63.0,30.06,East,90,2.0,2.0,97,0.00,,,0.00,meteohub,2013-02-22 11:20:00,
2013-02-22 06:24:00,63.9,63.0,30.06,SE,135,1.0,2.0,97,0.00,,,0.00,meteohub,2013-02-22 11:24:00,
2013-02-22 06:25:00,63.9,63.0,30.06,East,90,2.0,2.0,97,0.00,,,0.00,meteohub,2013-02-22 11:25:00,
2013-02-22 06:26:00,63.9,63.0,30.06,NE,45,1.0,2.0,97,0.00,,,0.00,meteohub,2013-02-22 11:26:00,
2013-02-22 06:30:00,63.9,63.0,30.06,East,90,2.0,2.0,97,0.00,,,0.00,meteohub,2013-02-22 11:30:00,
2013-02-22 06:31:00,63.9,63.0,30.06,East,90,1.0,2.0,97,0.00,,,0.00,meteohub,2013-02-22 11:31:00,
2013-02-22 06:32:00,63.9,63.0,30.06,East,90,2.0,2.0,97,0.00,,,0.00,meteohub,2013-02-22 11:32:00,
2013-02-22 06:36:00,63.9,63.0,30.06,NE,45,2.0,2.0,97,0.00,,,0.00,meteohub,2013-02-22 11:36:00,
2013-02-22 06:37:00,63.9,63.0,30.06,NE,45,2.0,2.0,97,0.00,,,0.00,meteohub,2013-02-22 11:37:00,
2013-02-22 06:38:00,63.9,63.0,30.06,NE,45,1.0,2.0,97,0.00,,,0.00,meteohub,2013-02-22 11:38:00,
2013-02-22 06:40:00,63.9,63.0,30.06,East,90,1.0,4.0,97,0.00,,,0.00,meteohub,2013-02-22 11:40:00,
2013-02-22 06:41:00,63.9,63.0,30.06,NE,45,1.0,4.0,97,0.00,,,0.00,meteohub,2013-02-22 11:41:00,
2013-02-22 06:43:00,63.9,63.0,30.06,NE,45,1.0,4.0,97,0.00,,,0.00,meteohub,2013-02-22 11:43:00,
2013-02-22 06:45:00,63.9,63.0,30.06,NE,45,2.0,4.0,97,0.00,,,0.00,meteohub,2013-02-22 11:45:00,
2013-02-22 06:47:00,63.9,63.0,30.06,SE,135,1.0,4.0,97,0.00,,,0.00,meteohub,2013-02-22 11:47:00,
2013-02-22 06:49:00,63.9,63.0,30.06,East,90,1.0,4.0,97,0.00,,,0.00,meteohub,2013-02-22 11:49:00,
2013-02-22 06:50:00,63.9,63.0,30.06,NE,45,2.0,4.0,97,0.00,,,0.00,meteohub,2013-02-22 11:50:00,
2013-02-22 06:52:00,63.9,63.0,30.06,SE,135,2.0,4.0,97,0.00,,,0.00,meteohub,2013-02-22 11:52:00,
2013-02-22 06:54:00,63.9,63.0,30.06,East,90,0.0,4.0,97,0.00,,,0.00,meteohub,2013-02-22 11:54:00,
2013-02-22 06:55:00,64.0,63.1,30.06,NE,45,2.0,2.0,97,0.00,,,0.00,meteohub,2013-02-22 11:55:00,
2013-02-22 06:58:00,64.0,63.1,30.06,East,90,2.0,2.0,97,0.00,,,0.00,meteohub,2013-02-22 11:58:00,
2013-02-22 06:59:00,64.0,63.1,30.06,East,90,2.0,2.0,97,0.00,,,0.00,meteohub,2013-02-22 11:59:00,
2013-02-22 07:00:00,64.0,63.1,30.06,SE,135,2.0,2.0,97,0.00,,,0.00,meteohub,2013-02-22 12:00:00,
2013-02-22 07:02:00,64.0,63.1,30.06,East,90,2.0,2.0,97,0.00,,,0.00,meteohub,2013-02-22 12:02:00,
2013-02-22 07:03:00,64.0,63.1,30.07,SE,135,2.0,2.0,97,0.00,,,0.00,meteohub,2013-02-22 12:03:00,
2013-02-22 07:04:00,64.2,63.3,30.06,East,90,2.0,2.0,97,0.00,,,0.00,meteohub,2013-02-22 12:04:00,
2013-02-22 07:07:00,64.2,63.3,30.06,East,90,1.0,2.0,97,0.00,,,0.00,meteohub,2013-02-22 12:07:00,
2013-02-22 07:08:00,64.2,63.3,30.07,East,90,1.0,2.0,97,0.00,,,0.00,meteohub,2013-02-22 12:08:00,
2013-02-22 07:09:00,64.2,63.3,30.07,South,180,2.0,2.0,97,0.00,,,0.00,meteohub,2013-02-22 12:09:00,
2013-02-22 07:12:00,64.4,64.0,30.07,East,90,1.0,2.0,99,0.00,,,0.00,meteohub,2013-02-22 12:12:00,
2013-02-22 07:13:00,64.4,64.0,30.07,NE,45,1.0,2.0,99,0.00,,,0.00,meteohub,2013-02-22 12:13:00,
2013-02-22 07:14:00,64.6,64.2,30.07,East,90,1.0,2.0,99,0.00,,,0.00,meteohub,2013-02-22 12:14:00,
2013-02-22 07:15:00,64.6,64.2,30.07,East,90,1.0,2.0,99,0.00,,,0.00,meteohub,2013-02-22 12:15:00,
2013-02-22 07:19:00,64.8,64.4,30.07,East,90,1.0,3.0,99,0.00,,,0.00,meteohub,2013-02-22 12:19:00,
2013-02-22 07:20:00,64.8,64.4,30.07,East,90,2.0,3.0,99,0.00,,,0.00,meteohub,2013-02-22 12:20:00,
2013-02-22 07:22:00,64.9,64.6,30.07,SE,135,2.0,3.0,99,0.00,,,0.00,meteohub,2013-02-22 12:22:00,
2013-02-22 07:24:00,65.1,64.8,30.07,East,90,2.0,3.0,99,0.00,,,0.00,meteohub,2013-02-22 12:24:00,
2013-02-22 07:26:00,65.1,64.8,30.07,East,90,2.0,3.0,99,0.00,,,0.00,meteohub,2013-02-22 12:26:00,
2013-02-22 07:29:00,65.3,64.9,30.07,SE,135,1.0,3.0,99,0.00,,,0.00,meteohub,2013-02-22 12:29:00,
2013-02-22 07:31:00,65.5,65.1,30.08,East,90,4.0,4.0,99,0.00,,,0.00,meteohub,2013-02-22 12:31:00,
2013-02-22 07:32:00,65.5,65.1,30.08,East,90,4.0,4.0,99,0.00,,,0.00,meteohub,2013-02-22 12:32:00,
2013-02-22 07:34:00,65.5,65.1,30.08,East,90,1.0,3.0,99,0.00,,,0.00,meteohub,2013-02-22 12:34:00,
2013-02-22 07:37:00,65.7,65.3,30.08,SE,135,2.0,4.0,99,0.00,,,0.00,meteohub,2013-02-22 12:37:00,
2013-02-22 07:40:00,65.8,65.5,30.08,North,0,2.0,4.0,99,0.00,,,0.00,meteohub,2013-02-22 12:40:00,
2013-02-22 07:43:00,66.0,65.7,30.08,SE,135,4.0,4.0,99,0.00,,,0.00,meteohub,2013-02-22 12:43:00,
2013-02-22 07:44:00,66.0,65.7,30.08,SE,135,2.0,4.0,99,0.00,,,0.00,meteohub,2013-02-22 12:44:00,
2013-02-22 07:45:00,66.2,65.8,30.08,NE,45,1.0,5.0,99,0.00,,,0.00,meteohub,2013-02-22 12:45:00,
2013-02-22 07:46:00,66.2,65.8,30.08,NE,45,1.0,5.0,99,0.00,,,0.00,meteohub,2013-02-22 12:46:00,
2013-02-22 07:48:00,66.4,66.0,30.08,SE,135,2.0,5.0,99,0.00,,,0.00,meteohub,2013-02-22 12:48:00,
2013-02-22 07:50:00,66.6,66.2,30.08,NE,45,2.0,5.0,99,0.00,,,0.00,meteohub,2013-02-22 12:50:00,
2013-02-22 07:52:00,66.6,66.2,30.08,SW,225,2.0,5.0,99,0.00,,,0.00,meteohub,2013-02-22 12:52:00,
2013-02-22 07:53:00,66.7,66.4,30.08,East,90,4.0,5.0,99,0.00,,,0.00,meteohub,2013-02-22 12:53:00,
2013-02-22 07:54:00,66.7,66.4,30.08,East,90,2.0,5.0,99,0.00,,,0.00,meteohub,2013-02-22 12:54:00,
2013-02-22 07:56:00,66.9,66.6,30.09,NE,45,2.0,5.0,99,0.00,,,0.00,meteohub,2013-02-22 12:56:00,
2013-02-22 07:57:00,66.9,66.6,30.09,East,90,4.0,5.0,99,0.00,,,0.00,meteohub,2013-02-22 12:57:00,
2013-02-22 07:59:00,66.9,66.6,30.08,SE,135,2.0,5.0,99,0.00,,,0.00,meteohub,2013-02-22 12:59:00,
2013-02-22 08:00:00,67.1,66.7,30.08,SE,135,2.0,5.0,99,0.00,,,0.00,meteohub,2013-02-22 13:00:00,
2013-02-22 08:02:00,67.1,66.7,30.08,NW,315,2.0,4.0,99,0.00,,,0.00,meteohub,2013-02-22 13:02:00,
2013-02-22 08:03:00,67.1,66.7,30.08,SE,135,2.0,4.0,99,0.00,,,0.00,meteohub,2013-02-22 13:03:00,
2013-02-22 08:05:00,67.3,66.9,30.08,East,90,4.0,4.0,99,0.00,,,0.00,meteohub,2013-02-22 13:05:00,
2013-02-22 08:08:00,67.5,67.1,30.09,SE,135,2.0,4.0,99,0.00,,,0.00,meteohub,2013-02-22 13:08:00,
2013-02-22 08:10:00,67.5,67.1,30.08,East,90,2.0,4.0,99,0.00,,,0.00,meteohub,2013-02-22 13:10:00,
2013-02-22 08:13:00,67.8,67.5,30.08,SE,135,2.0,8.0,99,0.00,,,0.00,meteohub,2013-02-22 13:13:00,
2013-02-22 08:15:00,68.0,67.5,30.09,East,90,2.0,8.0,98,0.00,,,0.00,meteohub,2013-02-22 13:15:00,
2013-02-22 08:18:00,68.2,67.6,30.08,East,90,5.0,8.0,98,0.00,,,0.00,meteohub,2013-02-22 13:18:00,
2013-02-22 08:20:00,68.4,67.8,30.08,SE,135,2.0,8.0,98,0.00,,,0.00,meteohub,2013-02-22 13:20:00,
2013-02-22 08:21:00,68.5,68.0,30.08,South,180,2.0,5.0,98,0.00,,,0.00,meteohub,2013-02-22 13:21:00,
2013-02-22 08:23:00,68.9,68.4,30.08,East,90,2.0,5.0,98,0.00,,,0.00,meteohub,2013-02-22 13:23:00,
2013-02-22 08:27:00,69.3,68.4,30.09,SE,135,3.0,5.0,97,0.00,,,0.00,meteohub,2013-02-22 13:27:00,
2013-02-22 08:29:00,69.6,68.7,30.08,NE,45,3.0,5.0,97,0.00,,,0.00,meteohub,2013-02-22 13:29:00,
2013-02-22 08:30:00,69.8,68.5,30.08,NE,45,4.0,5.0,96,0.00,,,0.00,meteohub,2013-02-22 13:30:00,
2013-02-22 08:31:00,69.8,68.5,30.08,NE,45,4.0,5.0,96,0.00,,,0.00,meteohub,2013-02-22 13:31:00,
2013-02-22 08:33:00,70.2,68.9,30.08,East,90,2.0,5.0,96,0.00,,,0.00,meteohub,2013-02-22 13:33:00,
2013-02-22 08:34:00,70.2,68.7,30.08,NW,315,6.0,6.0,95,0.00,,,0.00,meteohub,2013-02-22 13:34:00,
2013-02-22 08:36:00,70.3,68.9,30.08,East,90,2.0,6.0,95,0.00,,,0.00,meteohub,2013-02-22 13:36:00,
2013-02-22 08:41:00,70.5,68.7,30.08,NW,315,2.0,6.0,94,0.00,,,0.00,meteohub,2013-02-22 13:41:00,
2013-02-22 08:42:00,70.7,68.9,30.08,SE,135,2.0,6.0,94,0.00,,,0.00,meteohub,2013-02-22 13:42:00,
2013-02-22 08:45:00,70.9,68.7,30.08,West,270,4.0,6.0,93,0.00,,,0.00,meteohub,2013-02-22 13:45:00,
2013-02-22 08:47:00,71.1,68.9,30.09,East,90,4.0,6.0,93,0.00,,,0.00,meteohub,2013-02-22 13:47:00,
2013-02-22 08:49:00,71.1,68.5,30.08,SW,225,6.0,6.0,92,0.00,,,0.00,meteohub,2013-02-22 13:49:00,
2013-02-22 08:51:00,71.1,68.5,30.09,SE,135,2.0,6.0,92,0.00,,,0.00,meteohub,2013-02-22 13:51:00,
2013-02-22 08:52:00,71.2,68.7,30.09,East,90,2.0,6.0,92,0.00,,,0.00,meteohub,2013-02-22 13:52:00,
2013-02-22 08:53:00,71.2,68.7,30.09,NE,45,3.0,6.0,92,0.00,,,0.00,meteohub,2013-02-22 13:53:00,
2013-02-22 08:56:00,71.4,68.7,30.09,SE,135,4.0,6.0,91,0.00,,,0.00,meteohub,2013-02-22 13:56:00,
2013-02-22 08:57:00,71.4,68.7,30.08,East,90,4.0,6.0,91,0.00,,,0.00,meteohub,2013-02-22 13:57:00,
2013-02-22 09:01:00,71.6,68.2,30.09,NE,45,4.0,6.0,89,0.00,,,0.00,meteohub,2013-02-22 14:01:00,
2013-02-22 09:02:00,71.6,68.2,30.09,NE,45,4.0,6.0,89,0.00,,,0.00,meteohub,2013-02-22 14:02:00,
2013-02-22 09:05:00,71.8,68.4,30.09,South,180,2.0,6.0,89,0.00,,,0.00,meteohub,2013-02-22 14:05:00,
2013-02-22 09:07:00,72.0,68.5,30.08,East,90,7.0,7.0,89,0.00,,,0.00,meteohub,2013-02-22 14:07:00,
2013-02-22 09:08:00,72.0,68.2,30.08,East,90,2.0,6.0,88,0.00,,,0.00,meteohub,2013-02-22 14:08:00,
2013-02-22 09:11:00,72.1,68.4,30.08,East,90,2.0,7.0,88,0.00,,,0.00,meteohub,2013-02-22 14:11:00,
2013-02-22 09:13:00,72.3,68.5,30.09,East,90,2.0,7.0,88,0.00,,,0.00,meteohub,2013-02-22 14:13:00,
2013-02-22 09:14:00,72.5,68.7,30.08,South,180,4.0,7.0,88,0.00,,,0.00,meteohub,2013-02-22 14:14:00,
2013-02-22 09:17:00,72.7,68.9,30.09,South,180,3.0,7.0,88,0.00,,,0.00,meteohub,2013-02-22 14:17:00,
2013-02-22 09:18:00,72.7,68.5,30.09,West,270,4.0,7.0,87,0.00,,,0.00,meteohub,2013-02-22 14:18:00,
2013-02-22 09:21:00,73.0,68.5,30.09,South,180,6.0,7.0,86,0.00,,,0.00,meteohub,2013-02-22 14:21:00,
2013-02-22 09:22:00,73.0,68.5,30.08,South,180,6.0,7.0,86,0.00,,,0.00,meteohub,2013-02-22 14:22:00,
2013-02-22 09:23:00,73.2,68.7,30.08,SE,135,4.0,7.0,86,0.00,,,0.00,meteohub,2013-02-22 14:23:00,
2013-02-22 09:26:00,73.2,68.7,30.08,East,90,5.0,7.0,86,0.00,,,0.00,meteohub,2013-02-22 14:26:00,
2013-02-22 09:27:00,73.2,68.4,30.09,South,180,6.0,7.0,85,0.00,,,0.00,meteohub,2013-02-22 14:27:00,
2013-02-22 09:28:00,73.4,68.9,30.09,SE,135,4.0,7.0,86,0.00,,,0.00,meteohub,2013-02-22 14:28:00,
2013-02-22 09:33:00,73.4,68.9,30.09,NW,315,3.0,7.0,86,0.00,,,0.00,meteohub,2013-02-22 14:33:00,
2013-02-22 09:34:00,73.4,68.9,30.08,NNW,338,2.0,7.0,86,0.00,,,0.00,meteohub,2013-02-22 14:34:00,
2013-02-22 09:36:00,73.6,69.1,30.08,East,90,2.0,8.0,86,0.00,,,0.00,meteohub,2013-02-22 14:36:00,
2013-02-22 09:38:00,73.8,69.3,30.09,SE,135,2.0,8.0,86,0.00,,,0.00,meteohub,2013-02-22 14:38:00,
2013-02-22 09:39:00,73.8,69.3,30.08,NW,315,2.0,8.0,86,0.00,,,0.00,meteohub,2013-02-22 14:39:00,
2013-02-22 09:40:00,73.8,69.3,30.09,South,180,6.0,8.0,86,0.00,,,0.00,meteohub,2013-02-22 14:40:00,
2013-02-22 09:41:00,73.8,69.3,30.09,South,180,6.0,8.0,86,0.00,,,0.00,meteohub,2013-02-22 14:41:00,
2013-02-22 09:44:00,73.8,68.9,30.08,NE,45,3.0,8.0,85,0.00,,,0.00,meteohub,2013-02-22 14:44:00,
2013-02-22 09:45:00,73.8,68.9,30.08,SE,135,2.0,8.0,85,0.00,,,0.00,meteohub,2013-02-22 14:45:00,
2013-02-22 09:47:00,73.8,68.9,30.08,NE,45,3.0,9.0,85,0.00,,,0.00,meteohub,2013-02-22 14:47:00,
2013-02-22 09:50:00,73.9,69.1,30.08,SE,135,4.0,9.0,85,0.00,,,0.00,meteohub,2013-02-22 14:50:00,
2013-02-22 09:52:00,74.1,69.3,30.08,NE,45,8.0,9.0,85,0.00,,,0.00,meteohub,2013-02-22 14:52:00,
2013-02-22 09:56:00,74.3,69.4,30.08,East,90,2.0,9.0,85,0.00,,,0.00,meteohub,2013-02-22 14:56:00,
2013-02-22 09:57:00,74.3,69.4,30.08,NW,315,2.0,9.0,85,0.00,,,0.00,meteohub,2013-02-22 14:57:00,
2013-02-22 10:02:00,74.8,70.0,30.08,SE,135,1.0,8.0,85,0.00,,,0.00,meteohub,2013-02-22 15:02:00,
2013-02-22 10:03:00,75.2,70.0,30.09,East,90,4.0,8.0,84,0.00,,,0.00,meteohub,2013-02-22 15:03:00,
2013-02-22 10:04:00,75.4,70.2,30.08,SE,135,2.0,8.0,84,0.00,,,0.00,meteohub,2013-02-22 15:04:00,
2013-02-22 10:07:00,75.7,70.2,30.08,SE,135,4.0,8.0,83,0.00,,,0.00,meteohub,2013-02-22 15:07:00,
2013-02-22 10:09:00,75.7,69.4,30.08,East,90,3.0,8.0,81,0.00,,,0.00,meteohub,2013-02-22 15:09:00,
2013-02-22 10:10:00,75.7,69.4,30.08,East,90,5.0,8.0,81,0.00,,,0.00,meteohub,2013-02-22 15:10:00,
2013-02-22 10:12:00,75.9,70.0,30.08,SE,135,5.0,10.0,82,0.00,,,0.00,meteohub,2013-02-22 15:12:00,
2013-02-22 10:15:00,76.1,69.8,30.08,SE,135,2.0,10.0,81,0.00,,,0.00,meteohub,2013-02-22 15:15:00,
2013-02-22 10:16:00,76.3,70.3,30.08,North,0,2.0,10.0,82,0.00,,,0.00,meteohub,2013-02-22 15:16:00,
2013-02-22 10:17:00,76.5,70.5,30.08,SE,135,4.0,10.0,82,0.00,,,0.00,meteohub,2013-02-22 15:17:00,
2013-02-22 10:21:00,76.5,69.8,30.08,SE,135,2.0,10.0,80,0.00,,,0.00,meteohub,2013-02-22 15:21:00,
2013-02-22 10:22:00,76.5,69.8,30.08,SE,135,3.0,10.0,80,0.00,,,0.00,meteohub,2013-02-22 15:22:00,
2013-02-22 10:24:00,76.8,70.2,30.08,SE,135,3.0,10.0,80,0.00,,,0.00,meteohub,2013-02-22 15:24:00,
2013-02-22 10:25:00,76.8,70.2,30.07,SE,135,4.0,10.0,80,0.00,,,0.00,meteohub,2013-02-22 15:25:00,
2013-02-22 10:26:00,77.2,70.2,30.07,SE,135,4.0,5.0,79,0.00,,,0.00,meteohub,2013-02-22 15:26:00,
2013-02-22 10:29:00,77.2,69.8,30.08,SE,135,3.0,5.0,78,0.00,,,0.00,meteohub,2013-02-22 15:29:00,
2013-02-22 10:30:00,77.2,69.8,30.08,North,0,4.0,5.0,78,0.00,,,0.00,meteohub,2013-02-22 15:30:00,
2013-02-22 10:32:00,77.2,69.8,30.08,SE,135,2.0,5.0,78,0.00,,,0.00,meteohub,2013-02-22 15:32:00,
2013-02-22 10:34:00,77.5,70.2,30.08,East,90,2.0,5.0,78,0.00,,,0.00,meteohub,2013-02-22 15:34:00,
2013-02-22 10:36:00,77.7,70.0,30.08,East,90,4.0,6.0,77,0.00,,,0.00,meteohub,2013-02-22 15:36:00,
2013-02-22 10:37:00,77.7,70.0,30.08,SE,135,2.0,6.0,77,0.00,,,0.00,meteohub,2013-02-22 15:37:00,
2013-02-22 10:38:00,77.7,70.0,30.08,NE,45,4.0,6.0,77,0.00,,,0.00,meteohub,2013-02-22 15:38:00,
2013-02-22 10:40:00,77.7,70.0,30.08,East,90,5.0,6.0,77,0.00,,,0.00,meteohub,2013-02-22 15:40:00,
2013-02-22 10:42:00,77.9,70.2,30.08,South,180,2.0,6.0,77,0.00,,,0.00,meteohub,2013-02-22 15:42:00,
2013-02-22 10:43:00,77.9,70.2,30.08,East,90,2.0,6.0,77,0.00,,,0.00,meteohub,2013-02-22 15:43:00,
2013-02-22 10:47:00,78.1,70.0,30.08,SW,225,2.0,6.0,76,0.00,,,0.00,meteohub,2013-02-22 15:47:00,
2013-02-22 10:48:00,78.3,70.0,30.08,SE,135,2.0,6.0,76,0.00,,,0.00,meteohub,2013-02-22 15:48:00,
2013-02-22 10:50:00,78.3,70.5,30.08,South,180,2.0,6.0,77,0.00,,,0.00,meteohub,2013-02-22 15:50:00,
2013-02-22 10:51:00,78.4,70.2,30.08,NW,315,4.0,5.0,76,0.00,,,0.00,meteohub,2013-02-22 15:51:00,
2013-02-22 10:52:00,78.6,70.0,30.08,South,180,5.0,5.0,75,0.00,,,0.00,meteohub,2013-02-22 15:52:00,
2013-02-22 10:55:00,78.8,70.2,30.08,South,180,5.0,5.0,75,0.00,,,0.00,meteohub,2013-02-22 15:55:00,
2013-02-22 10:56:00,78.8,69.8,30.08,South,180,11.0,11.0,74,0.00,,,0.00,meteohub,2013-02-22 15:56:00,
2013-02-22 10:57:00,78.8,69.4,30.08,SW,225,7.0,7.0,73,0.00,,,0.00,meteohub,2013-02-22 15:57:00,
2013-02-22 11:02:00,78.6,70.0,30.08,South,180,3.0,11.0,75,0.00,,,0.00,meteohub,2013-02-22 16:02:00,
2013-02-22 11:03:00,78.8,69.8,30.08,South,180,14.0,14.0,74,0.00,,,0.00,meteohub,2013-02-22 16:03:00,
2013-02-22 11:04:00,78.6,69.6,30.08,SE,135,2.0,11.0,74,0.00,,,0.00,meteohub,2013-02-22 16:04:00,
2013-02-22 11:08:00,78.6,70.0,30.08,West,270,11.0,14.0,75,0.00,,,0.00,meteohub,2013-02-22 16:08:00,
2013-02-22 11:09:00,78.6,70.0,30.08,West,270,11.0,14.0,75,0.00,,,0.00,meteohub,2013-02-22 16:09:00,
2013-02-22 11:10:00,78.4,69.4,30.08,North,0,4.0,14.0,74,0.00,,,0.00,meteohub,2013-02-22 16:10:00,
2013-02-22 11:11:00,78.6,70.0,30.08,South,180,3.0,14.0,75,0.00,,,0.00,meteohub,2013-02-22 16:11:00,
2013-02-22 11:14:00,79.0,70.0,30.07,SW,225,4.0,14.0,74,0.00,,,0.00,meteohub,2013-02-22 16:14:00,
2013-02-22 11:17:00,79.2,69.8,30.08,West,270,4.0,14.0,73,0.00,,,0.00,meteohub,2013-02-22 16:17:00,
2013-02-22 11:19:00,79.2,69.8,30.07,NE,45,3.0,14.0,73,0.00,,,0.00,meteohub,2013-02-22 16:19:00,
2013-02-22 11:22:00,79.3,70.0,30.08,South,180,6.0,11.0,73,0.00,,,0.00,meteohub,2013-02-22 16:22:00,
2013-02-22 11:23:00,79.5,69.6,30.08,SE,135,8.0,11.0,72,0.00,,,0.00,meteohub,2013-02-22 16:23:00,
2013-02-22 11:24:00,79.3,69.4,30.08,South,180,8.0,11.0,72,0.00,,,0.00,meteohub,2013-02-22 16:24:00,
2013-02-22 11:26:00,79.3,69.4,30.07,South,180,4.0,8.0,72,0.00,,,0.00,meteohub,2013-02-22 16:26:00,
2013-02-22 11:27:00,79.3,69.4,30.07,South,180,4.0,8.0,72,0.00,,,0.00,meteohub,2013-02-22 16:27:00,
2013-02-22 11:28:00,79.3,70.0,30.08,SW,225,10.0,10.0,73,0.00,,,0.00,meteohub,2013-02-22 16:28:00,
2013-02-22 11:32:00,79.2,69.8,30.07,North,0,10.0,10.0,73,0.00,,,0.00,meteohub,2013-02-22 16:32:00,
2013-02-22 11:33:00,79.0,69.6,30.07,SW,225,12.0,12.0,73,0.00,,,0.00,meteohub,2013-02-22 16:33:00,
2013-02-22 11:35:00,78.8,69.4,30.08,SW,225,7.0,14.0,73,0.00,,,0.00,meteohub,2013-02-22 16:35:00,
2013-02-22 11:37:00,78.8,69.4,30.08,South,180,9.0,14.0,73,0.00,,,0.00,meteohub,2013-02-22 16:37:00,
2013-02-22 11:38:00,78.8,69.4,30.08,SW,225,8.0,14.0,73,0.00,,,0.00,meteohub,2013-02-22 16:38:00,
2013-02-22 11:39:00,78.8,69.4,30.08,East,90,6.0,14.0,73,0.00,,,0.00,meteohub,2013-02-22 16:39:00,
2013-02-22 11:41:00,79.0,69.6,30.08,NW,315,4.0,14.0,73,0.00,,,0.00,meteohub,2013-02-22 16:41:00,
2013-02-22 11:45:00,79.2,69.8,30.08,NW,315,6.0,14.0,73,0.00,,,0.00,meteohub,2013-02-22 16:45:00,
2013-02-22 11:46:00,79.3,70.0,30.08,SW,225,8.0,14.0,73,0.00,,,0.00,meteohub,2013-02-22 16:46:00,
2013-02-22 11:47:00,79.3,70.0,30.08,SW,225,8.0,14.0,73,0.00,,,0.00,meteohub,2013-02-22 16:47:00,
2013-02-22 11:52:00,79.3,69.4,30.08,SE,135,4.0,13.0,72,0.00,,,0.00,meteohub,2013-02-22 16:52:00,
2013-02-22 11:53:00,79.3,70.0,30.08,SE,135,8.0,13.0,73,0.00,,,0.00,meteohub,2013-02-22 16:53:00,
2013-02-22 11:54:00,79.3,69.4,30.08,SW,225,8.0,13.0,72,0.00,,,0.00,meteohub,2013-02-22 16:54:00,
2013-02-22 11:57:00,79.3,69.4,30.08,North,0,4.0,12.0,72,0.00,,,0.00,meteohub,2013-02-22 16:57:00,
2013-02-22 11:58:00,79.5,69.6,30.08,South,180,13.0,13.0,72,0.00,,,0.00,meteohub,2013-02-22 16:58:00,
2013-02-22 12:01:00,79.3,69.4,30.07,SE,135,3.0,13.0,72,0.00,,,0.00,meteohub,2013-02-22 17:01:00,
2013-02-22 12:02:00,79.3,69.4,30.07,SE,135,3.0,13.0,72,0.00,,,0.00,meteohub,2013-02-22 17:02:00,
2013-02-22 12:04:00,79.5,69.6,30.07,South,180,4.0,13.0,72,0.00,,,0.00,meteohub,2013-02-22 17:04:00,
2013-02-22 12:07:00,79.7,69.8,30.08,SW,225,13.0,13.0,72,0.00,,,0.00,meteohub,2013-02-22 17:07:00,
2013-02-22 12:08:00,79.7,69.8,30.07,South,180,6.0,13.0,72,0.00,,,0.00,meteohub,2013-02-22 17:08:00,
2013-02-22 12:12:00,79.7,69.8,30.07,NE,45,8.0,13.0,72,0.00,,,0.00,meteohub,2013-02-22 17:12:00,
2013-02-22 12:13:00,79.7,69.8,30.07,NW,315,9.0,13.0,72,0.00,,,0.00,meteohub,2013-02-22 17:13:00,
2013-02-22 12:14:00,79.7,69.8,30.07,South,180,15.0,15.0,72,0.00,,,0.00,meteohub,2013-02-22 17:14:00,
2013-02-22 12:16:00,79.7,69.8,30.07,East,90,12.0,13.0,72,0.00,,,0.00,meteohub,2013-02-22 17:16:00,
2013-02-22 12:17:00,79.5,69.6,30.07,SE,135,7.0,13.0,72,0.00,,,0.00,meteohub,2013-02-22 17:17:00,
2013-02-22 12:19:00,79.5,69.6,30.07,West,270,16.0,16.0,72,0.00,,,0.00,meteohub,2013-02-22 17:19:00,
2013-02-22 12:20:00,79.5,69.6,30.07,SE,135,8.0,13.0,72,0.00,,,0.00,meteohub,2013-02-22 17:20:00,
2013-02-22 12:22:00,79.5,70.2,30.07,South,180,3.0,16.0,73,0.00,,,0.00,meteohub,2013-02-22 17:22:00,
2013-02-22 12:23:00,79.5,70.2,30.07,NW,315,6.0,16.0,73,0.00,,,0.00,meteohub,2013-02-22 17:23:00,
2013-02-22 12:25:00,79.7,70.3,30.07,SE,135,13.0,16.0,73,0.00,,,0.00,meteohub,2013-02-22 17:25:00,
2013-02-22 12:26:00,79.7,69.8,30.07,South,180,6.0,16.0,72,0.00,,,0.00,meteohub,2013-02-22 17:26:00,
2013-02-22 12:27:00,79.7,70.3,30.06,SW,225,3.0,16.0,73,0.00,,,0.00,meteohub,2013-02-22 17:27:00,
2013-02-22 12:29:00,79.9,70.5,30.06,NW,315,10.0,16.0,73,0.00,,,0.00,meteohub,2013-02-22 17:29:00,
2013-02-22 12:31:00,79.7,69.8,30.07,SE,135,11.0,16.0,72,0.00,,,0.00,meteohub,2013-02-22 17:31:00,
2013-02-22 12:32:00,79.7,69.8,30.07,SW,225,10.0,16.0,72,0.00,,,0.00,meteohub,2013-02-22 17:32:00,
2013-02-22 12:34:00,79.5,69.6,30.06,SW,225,13.0,16.0,72,0.00,,,0.00,meteohub,2013-02-22 17:34:00,
2013-02-22 12:36:00,79.2,69.8,30.06,SW,225,11.0,14.0,73,0.00,,,0.00,meteohub,2013-02-22 17:36:00,
2013-02-22 12:37:00,79.2,69.8,30.06,SW,225,11.0,14.0,73,0.00,,,0.00,meteohub,2013-02-22 17:37:00,
2013-02-22 12:38:00,78.8,69.4,30.06,SE,135,11.0,14.0,73,0.00,,,0.00,meteohub,2013-02-22 17:38:00,
2013-02-22 12:39:00,78.8,69.4,30.07,South,180,4.0,14.0,73,0.00,,,0.00,meteohub,2013-02-22 17:39:00,
2013-02-22 12:42:00,79.0,70.0,30.06,SW,225,10.0,16.0,74,0.00,,,0.00,meteohub,2013-02-22 17:42:00,
2013-02-22 12:44:00,79.2,70.2,30.06,SW,225,13.0,16.0,74,0.00,,,0.00,meteohub,2013-02-22 17:44:00,
2013-02-22 12:45:00,79.2,70.2,30.06,SE,135,12.0,16.0,74,0.00,,,0.00,meteohub,2013-02-22 17:45:00,
2013-02-22 12:48:00,79.0,70.0,30.06,SE,135,11.0,16.0,74,0.00,,,0.00,meteohub,2013-02-22 17:48:00,
2013-02-22 12:50:00,79.0,70.3,30.06,South,180,9.0,16.0,75,0.00,,,0.00,meteohub,2013-02-22 17:50:00,
2013-02-22 12:51:00,79.0,70.0,30.06,South,180,11.0,16.0,74,0.00,,,0.00,meteohub,2013-02-22 17:51:00,
2013-02-22 12:52:00,79.0,70.0,30.06,NNW,338,11.0,16.0,74,0.00,,,0.00,meteohub,2013-02-22 17:52:00,
2013-02-22 12:53:00,79.0,70.3,30.06,SE,135,9.0,16.0,75,0.00,,,0.00,meteohub,2013-02-22 17:53:00,
2013-02-22 12:56:00,78.8,70.2,30.06,North,0,11.0,15.0,75,0.00,,,0.00,meteohub,2013-02-22 17:56:00,
2013-02-22 12:57:00,78.8,70.2,30.06,South,180,7.0,15.0,75,0.00,,,0.00,meteohub,2013-02-22 17:57:00,
2013-02-22 12:58:00,79.0,70.3,30.06,South,180,14.0,15.0,75,0.00,,,0.00,meteohub,2013-02-22 17:58:00,
2013-02-22 13:00:00,79.0,70.3,30.06,SW,225,7.0,15.0,75,0.00,,,0.00,meteohub,2013-02-22 18:00:00,
2013-02-22 13:01:00,79.0,70.3,30.06,SW,225,7.0,15.0,75,0.00,,,0.00,meteohub,2013-02-22 18:01:00,
2013-02-22 13:02:00,79.2,70.5,30.06,South,180,11.0,15.0,75,0.00,,,0.00,meteohub,2013-02-22 18:02:00,
2013-02-22 13:06:00,79.2,70.2,30.05,East,90,12.0,15.0,74,0.00,,,0.00,meteohub,2013-02-22 18:06:00,
2013-02-22 13:07:00,79.0,70.3,30.06,South,180,4.0,15.0,75,0.00,,,0.00,meteohub,2013-02-22 18:07:00,
2013-02-22 13:08:00,79.0,70.3,30.06,South,180,10.0,15.0,75,0.00,,,0.00,meteohub,2013-02-22 18:08:00,
2013-02-22 13:11:00,79.2,70.5,30.05,SE,135,8.0,16.0,75,0.00,,,0.00,meteohub,2013-02-22 18:11:00,
2013-02-22 13:12:00,79.2,70.5,30.06,South,180,3.0,16.0,75,0.00,,,0.00,meteohub,2013-02-22 18:12:00,
2013-02-22 13:13:00,79.2,70.5,30.06,South,180,9.0,16.0,75,0.00,,,0.00,meteohub,2013-02-22 18:13:00,
2013-02-22 13:17:00,78.6,70.9,30.05,SW,225,8.0,16.0,77,0.00,,,0.00,meteohub,2013-02-22 18:17:00,
2013-02-22 13:19:00,78.6,70.9,30.05,SW,225,5.0,16.0,77,0.00,,,0.00,meteohub,2013-02-22 18:19:00,
2013-02-22 13:20:00,78.8,70.5,30.06,SW,225,15.0,16.0,76,0.00,,,0.00,meteohub,2013-02-22 18:20:00,
2013-02-22 13:22:00,78.8,70.5,30.06,South,180,10.0,16.0,76,0.00,,,0.00,meteohub,2013-02-22 18:22:00,
2013-02-22 13:24:00,79.0,70.7,30.06,South,180,11.0,16.0,76,0.00,,,0.00,meteohub,2013-02-22 18:24:00,
2013-02-22 13:25:00,78.8,70.2,30.05,SW,225,11.0,15.0,75,0.00,,,0.00,meteohub,2013-02-22 18:25:00,
2013-02-22 13:27:00,78.8,70.5,30.06,SW,225,9.0,15.0,76,0.00,,,0.00,meteohub,2013-02-22 18:27:00,
2013-02-22 13:29:00,78.8,70.5,30.05,South,180,10.0,15.0,76,0.00,,,0.00,meteohub,2013-02-22 18:29:00,
2013-02-22 13:31:00,78.8,70.5,30.05,South,180,6.0,15.0,76,0.00,,,0.00,meteohub,2013-02-22 18:31:00,
2013-02-22 13:32:00,78.8,70.5,30.06,WSW,248,16.0,16.0,76,0.00,,,0.00,meteohub,2013-02-22 18:32:00,
2013-02-22 13:33:00,78.8,70.5,30.05,SE,135,11.0,15.0,76,0.00,,,0.00,meteohub,2013-02-22 18:33:00,
2013-02-22 13:35:00,78.8,70.5,30.05,SW,225,11.0,15.0,76,0.00,,,0.00,meteohub,2013-02-22 18:35:00,
2013-02-22 13:37:00,78.8,70.5,30.05,SW,225,15.0,16.0,76,0.00,,,0.00,meteohub,2013-02-22 18:37:00,
2013-02-22 13:39:00,78.4,71.1,30.05,SW,225,12.0,16.0,78,0.00,,,0.00,meteohub,2013-02-22 18:39:00,
2013-02-22 13:40:00,78.3,70.9,30.05,SE,135,12.0,16.0,78,0.00,,,0.00,meteohub,2013-02-22 18:40:00,
2013-02-22 13:44:00,78.3,71.2,30.05,South,180,11.0,17.0,79,0.00,,,0.00,meteohub,2013-02-22 18:44:00,
2013-02-22 13:46:00,78.3,71.2,30.05,SE,135,11.0,17.0,79,0.00,,,0.00,meteohub,2013-02-22 18:46:00,
2013-02-22 13:47:00,78.1,71.1,30.05,South,180,12.0,17.0,79,0.00,,,0.00,meteohub,2013-02-22 18:47:00,
2013-02-22 13:50:00,78.1,71.1,30.05,SW,225,9.0,17.0,79,0.00,,,0.00,meteohub,2013-02-22 18:50:00,
2013-02-22 13:52:00,78.1,71.1,30.05,SE,135,9.0,17.0,79,0.00,,,0.00,meteohub,2013-02-22 18:52:00,
2013-02-22 13:53:00,78.1,71.1,30.05,SW,225,14.0,17.0,79,0.00,,,0.00,meteohub,2013-02-22 18:53:00,
2013-02-22 13:55:00,78.1,71.1,30.05,SSW,203,8.0,16.0,79,0.00,,,0.00,meteohub,2013-02-22 18:55:00,
2013-02-22 13:58:00,78.3,71.2,30.04,South,180,13.0,16.0,79,0.00,,,0.00,meteohub,2013-02-22 18:58:00,
2013-02-22 13:59:00,78.3,71.2,30.04,South,180,13.0,16.0,79,0.00,,,0.00,meteohub,2013-02-22 18:59:00,
2013-02-22 14:01:00,78.4,71.4,30.05,SE,135,10.0,16.0,79,0.00,,,0.00,meteohub,2013-02-22 19:01:00,
2013-02-22 14:02:00,78.4,71.4,30.05,SE,135,10.0,16.0,79,0.00,,,0.00,meteohub,2013-02-22 19:02:00,
2013-02-22 14:04:00,78.8,71.1,30.04,South,180,7.0,16.0,77,0.00,,,0.00,meteohub,2013-02-22 19:04:00,
2013-02-22 14:05:00,79.0,71.1,30.04,West,270,4.0,14.0,77,0.00,,,0.00,meteohub,2013-02-22 19:05:00,
2013-02-22 14:07:00,79.2,70.9,30.04,South,180,9.0,14.0,76,0.00,,,0.00,meteohub,2013-02-22 19:07:00,
2013-02-22 14:09:00,79.2,70.9,30.04,SE,135,9.0,14.0,76,0.00,,,0.00,meteohub,2013-02-22 19:09:00,
2013-02-22 14:10:00,79.2,70.9,30.04,South,180,10.0,13.0,76,0.00,,,0.00,meteohub,2013-02-22 19:10:00,
2013-02-22 14:11:00,79.0,70.7,30.04,SW,225,7.0,13.0,76,0.00,,,0.00,meteohub,2013-02-22 19:11:00,
2013-02-22 14:14:00,79.0,71.1,30.04,SW,225,11.0,13.0,77,0.00,,,0.00,meteohub,2013-02-22 19:14:00,
2013-02-22 14:16:00,79.0,70.7,30.04,SW,225,8.0,11.0,76,0.00,,,0.00,meteohub,2013-02-22 19:16:00,
2013-02-22 14:18:00,79.0,70.7,30.04,SW,225,10.0,11.0,76,0.00,,,0.00,meteohub,2013-02-22 19:18:00,
2013-02-22 14:20:00,78.6,70.9,30.04,East,90,11.0,11.0,77,0.00,,,0.00,meteohub,2013-02-22 19:20:00,
2013-02-22 14:22:00,78.6,71.2,30.04,SW,225,11.0,11.0,78,0.00,,,0.00,meteohub,2013-02-22 19:22:00,
2013-02-22 14:23:00,78.4,71.1,30.04,SE,135,10.0,11.0,78,0.00,,,0.00,meteohub,2013-02-22 19:23:00,
2013-02-22 14:25:00,78.4,71.1,30.04,South,180,2.0,11.0,78,0.00,,,0.00,meteohub,2013-02-22 19:25:00,
2013-02-22 14:26:00,78.4,71.1,30.04,SW,225,12.0,12.0,78,0.00,,,0.00,meteohub,2013-02-22 19:26:00,
2013-02-22 14:27:00,78.6,71.2,30.04,SW,225,13.0,13.0,78,0.00,,,0.00,meteohub,2013-02-22 19:27:00,
2013-02-22 14:30:00,78.1,70.7,30.04,West,270,8.0,13.0,78,0.00,,,0.00,meteohub,2013-02-22 19:30:00,
2013-02-22 14:31:00,78.1,71.1,30.04,South,180,6.0,13.0,79,0.00,,,0.00,meteohub,2013-02-22 19:31:00,
2013-02-22 14:32:00,78.1,71.1,30.04,South,180,8.0,13.0,79,0.00,,,0.00,meteohub,2013-02-22 19:32:00,
2013-02-22 14:34:00,78.3,71.2,30.04,SW,225,10.0,13.0,79,0.00,,,0.00,meteohub,2013-02-22 19:34:00,
2013-02-22 14:35:00,78.3,71.2,30.04,SW,225,11.0,13.0,79,0.00,,,0.00,meteohub,2013-02-22 19:35:00,
2013-02-22 14:36:00,78.6,71.6,30.04,SW,225,13.0,13.0,79,0.00,,,0.00,meteohub,2013-02-22 19:36:00,
2013-02-22 14:39:00,78.6,71.2,30.04,SW,225,6.0,13.0,78,0.00,,,0.00,meteohub,2013-02-22 19:39:00,
2013-02-22 14:41:00,78.6,71.2,30.03,SW,225,11.0,13.0,78,0.00,,,0.00,meteohub,2013-02-22 19:41:00,
2013-02-22 14:42:00,78.6,71.2,30.03,South,180,11.0,13.0,78,0.00,,,0.00,meteohub,2013-02-22 19:42:00,
2013-02-22 14:44:00,78.4,71.4,30.03,South,180,4.0,13.0,79,0.00,,,0.00,meteohub,2013-02-22 19:44:00,
2013-02-22 14:46:00,78.6,71.6,30.03,SE,135,8.0,14.0,79,0.00,,,0.00,meteohub,2013-02-22 19:46:00,
2013-02-22 14:47:00,78.6,71.6,30.03,SW,225,10.0,14.0,79,0.00,,,0.00,meteohub,2013-02-22 19:47:00,
2013-02-22 14:48:00,78.6,71.2,30.03,South,180,14.0,14.0,78,0.00,,,0.00,meteohub,2013-02-22 19:48:00,
2013-02-22 14:50:00,78.1,71.1,30.03,South,180,10.0,14.0,79,0.00,,,0.00,meteohub,2013-02-22 19:50:00,
2013-02-22 14:51:00,77.9,70.9,30.03,East,90,13.0,14.0,79,0.00,,,0.00,meteohub,2013-02-22 19:51:00,
2013-02-22 14:52:00,77.9,71.2,30.03,South,180,8.0,14.0,80,0.00,,,0.00,meteohub,2013-02-22 19:52:00,
2013-02-22 14:56:00,77.9,71.2,30.03,SW,225,13.0,14.0,80,0.00,,,0.00,meteohub,2013-02-22 19:56:00,
2013-02-22 14:57:00,77.7,71.1,30.03,SE,135,6.0,14.0,80,0.00,,,0.00,meteohub,2013-02-22 19:57:00,
2013-02-22 15:01:00,77.9,70.9,30.03,SW,225,6.0,14.0,79,0.00,,,0.00,meteohub,2013-02-22 20:01:00,
2013-02-22 15:02:00,77.9,70.9,30.03,SW,225,6.0,14.0,79,0.00,,,0.00,meteohub,2013-02-22 20:02:00,
2013-02-22 15:03:00,77.7,71.1,30.03,South,180,14.0,14.0,80,0.00,,,0.00,meteohub,2013-02-22 20:03:00,
2013-02-22 15:07:00,77.5,70.9,30.03,NW,315,8.0,15.0,80,0.00,,,0.00,meteohub,2013-02-22 20:07:00,
2013-02-22 15:09:00,77.7,71.1,30.02,SW,225,10.0,15.0,80,0.00,,,0.00,meteohub,2013-02-22 20:09:00,
2013-02-22 15:11:00,77.9,71.2,30.02,SW,225,8.0,15.0,80,0.00,,,0.00,meteohub,2013-02-22 20:11:00,
2013-02-22 15:14:00,78.1,71.1,30.03,SW,225,15.0,15.0,79,0.00,,,0.00,meteohub,2013-02-22 20:14:00,
2013-02-22 15:15:00,78.1,71.1,30.03,SW,225,15.0,15.0,79,0.00,,,0.00,meteohub,2013-02-22 20:15:00,
2013-02-22 15:16:00,77.9,70.9,30.03,SW,225,12.0,15.0,79,0.00,,,0.00,meteohub,2013-02-22 20:16:00,
2013-02-22 15:20:00,77.5,70.9,30.03,South,180,11.0,15.0,80,0.00,,,0.00,meteohub,2013-02-22 20:20:00,
2013-02-22 15:21:00,77.5,70.9,30.03,SE,135,10.0,15.0,80,0.00,,,0.00,meteohub,2013-02-22 20:21:00,
2013-02-22 15:22:00,77.5,70.9,30.03,SE,135,10.0,15.0,80,0.00,,,0.00,meteohub,2013-02-22 20:22:00,
2013-02-22 15:25:00,77.7,71.1,30.03,SE,135,4.0,15.0,80,0.00,,,0.00,meteohub,2013-02-22 20:25:00,
2013-02-22 15:27:00,77.9,70.9,30.02,SW,225,8.0,15.0,79,0.00,,,0.00,meteohub,2013-02-22 20:27:00,
2013-02-22 15:29:00,77.7,70.7,30.02,SE,135,11.0,15.0,79,0.00,,,0.00,meteohub,2013-02-22 20:29:00,
2013-02-22 15:30:00,77.7,70.7,30.03,SE,135,9.0,15.0,79,0.00,,,0.00,meteohub,2013-02-22 20:30:00,
2013-02-22 15:32:00,77.7,70.7,30.02,SE,135,11.0,15.0,79,0.00,,,0.00,meteohub,2013-02-22 20:32:00,
2013-02-22 15:33:00,77.7,70.7,30.02,NW,315,4.0,15.0,79,0.00,,,0.00,meteohub,2013-02-22 20:33:00,
2013-02-22 15:36:00,77.7,71.1,30.03,South,180,8.0,12.0,80,0.00,,,0.00,meteohub,2013-02-22 20:36:00,
2013-02-22 15:39:00,78.1,71.1,30.02,SE,135,3.0,12.0,79,0.00,,,0.00,meteohub,2013-02-22 20:39:00,
2013-02-22 15:40:00,78.1,71.1,30.02,SE,135,9.0,12.0,79,0.00,,,0.00,meteohub,2013-02-22 20:40:00,
2013-02-22 15:41:00,78.1,71.1,30.02,SE,135,9.0,12.0,79,0.00,,,0.00,meteohub,2013-02-22 20:41:00,
2013-02-22 15:45:00,78.1,70.7,30.02,South,180,14.0,14.0,78,0.00,,,0.00,meteohub,2013-02-22 20:45:00,
2013-02-22 15:46:00,77.9,70.5,30.02,South,180,9.0,14.0,78,0.00,,,0.00,meteohub,2013-02-22 20:46:00,
2013-02-22 15:47:00,77.9,70.5,30.02,SW,225,9.0,14.0,78,0.00,,,0.00,meteohub,2013-02-22 20:47:00,
2013-02-22 15:51:00,77.7,70.7,30.02,South,180,5.0,14.0,79,0.00,,,0.00,meteohub,2013-02-22 20:51:00,
2013-02-22 15:52:00,77.9,70.9,30.02,SW,225,8.0,14.0,79,0.00,,,0.00,meteohub,2013-02-22 20:52:00,
2013-02-22 15:53:00,77.9,70.9,30.02,South,180,6.0,14.0,79,0.00,,,0.00,meteohub,2013-02-22 20:53:00,
2013-02-22 15:54:00,77.9,70.9,30.02,South,180,6.0,14.0,79,0.00,,,0.00,meteohub,2013-02-22 20:54:00,
2013-02-22 15:57:00,78.1,70.7,30.02,SE,135,8.0,14.0,78,0.00,,,0.00,meteohub,2013-02-22 20:57:00,
2013-02-22 15:59:00,78.1,70.7,30.02,South,180,11.0,14.0,78,0.00,,,0.00,meteohub,2013-02-22 20:59:00,
2013-02-22 16:00:00,77.9,70.5,30.02,West,270,5.0,13.0,78,0.00,,,0.00,meteohub,2013-02-22 21:00:00,
2013-02-22 16:04:00,77.9,70.5,30.02,SW,225,9.0,13.0,78,0.00,,,0.00,meteohub,2013-02-22 21:04:00,
2013-02-22 16:05:00,77.7,70.3,30.02,SW,225,9.0,11.0,78,0.00,,,0.00,meteohub,2013-02-22 21:05:00,
2013-02-22 16:06:00,77.7,70.3,30.02,South,180,11.0,11.0,78,0.00,,,0.00,meteohub,2013-02-22 21:06:00,
2013-02-22 16:07:00,77.7,70.3,30.02,South,180,11.0,11.0,78,0.00,,,0.00,meteohub,2013-02-22 21:07:00,
2013-02-22 16:09:00,77.4,70.3,30.02,South,180,14.0,14.0,79,0.00,,,0.00,meteohub,2013-02-22 21:09:00,
2013-02-22 16:12:00,77.2,70.2,30.02,SW,225,11.0,11.0,79,0.00,,,0.00,meteohub,2013-02-22 21:12:00,
2013-02-22 16:14:00,76.8,70.5,30.02,SW,225,8.0,11.0,81,0.00,,,0.00,meteohub,2013-02-22 21:14:00,
2013-02-22 16:17:00,76.8,70.5,30.02,SW,225,14.0,14.0,81,0.00,,,0.00,meteohub,2013-02-22 21:17:00,
2013-02-22 16:18:00,76.6,70.3,30.02,SW,225,11.0,14.0,81,0.00,,,0.00,meteohub,2013-02-22 21:18:00,
2013-02-22 16:20:00,76.5,70.5,30.02,SW,225,12.0,14.0,82,0.00,,,0.00,meteohub,2013-02-22 21:20:00,
2013-02-22 16:23:00,76.3,70.3,30.02,South,180,11.0,14.0,82,0.00,,,0.00,meteohub,2013-02-22 21:23:00,
2013-02-22 16:24:00,76.3,70.3,30.02,West,270,9.0,14.0,82,0.00,,,0.00,meteohub,2013-02-22 21:24:00,
2013-02-22 16:27:00,76.1,70.5,30.02,South,180,7.0,14.0,83,0.00,,,0.00,meteohub,2013-02-22 21:27:00,
2013-02-22 16:29:00,76.1,70.5,30.02,SW,225,9.0,14.0,83,0.00,,,0.00,meteohub,2013-02-22 21:29:00,
2013-02-22 16:30:00,76.1,70.5,30.02,SW,225,8.0,14.0,83,0.00,,,0.00,meteohub,2013-02-22 21:30:00,
2013-02-22 16:31:00,76.1,70.5,30.02,West,270,12.0,14.0,83,0.00,,,0.00,meteohub,2013-02-22 21:31:00,
2013-02-22 16:32:00,76.1,70.5,30.02,West,270,12.0,14.0,83,0.00,,,0.00,meteohub,2013-02-22 21:32:00,
2013-02-22 16:35:00,75.9,70.7,30.02,SW,225,9.0,14.0,84,0.00,,,0.00,meteohub,2013-02-22 21:35:00,
2013-02-22 16:37:00,75.9,70.7,30.02,North,0,9.0,13.0,84,0.00,,,0.00,meteohub,2013-02-22 21:37:00,
2013-02-22 16:38:00,76.3,71.1,30.02,SE,135,9.0,13.0,84,0.00,,,0.00,meteohub,2013-02-22 21:38:00,
2013-02-22 16:42:00,76.6,71.1,30.02,SE,135,8.0,13.0,83,0.00,,,0.00,meteohub,2013-02-22 21:42:00,
2013-02-22 16:43:00,76.6,70.7,30.02,NW,315,5.0,13.0,82,0.00,,,0.00,meteohub,2013-02-22 21:43:00,
2013-02-22 16:45:00,76.6,70.7,30.02,SW,225,9.0,13.0,82,0.00,,,0.00,meteohub,2013-02-22 21:45:00,
2013-02-22 16:46:00,76.6,70.7,30.02,SW,225,6.0,13.0,82,0.00,,,0.00,meteohub,2013-02-22 21:46:00,
2013-02-22 16:48:00,76.6,70.7,30.02,SE,135,6.0,13.0,82,0.00,,,0.00,meteohub,2013-02-22 21:48:00,
2013-02-22 16:51:00,76.6,70.7,30.02,NW,315,8.0,11.0,82,0.00,,,0.00,meteohub,2013-02-22 21:51:00,
2013-02-22 16:53:00,76.6,70.7,30.02,SW,225,7.0,11.0,82,0.00,,,0.00,meteohub,2013-02-22 21:53:00,
2013-02-22 16:54:00,76.6,70.7,30.02,SW,225,11.0,11.0,82,0.00,,,0.00,meteohub,2013-02-22 21:54:00,
2013-02-22 16:56:00,76.5,70.5,30.02,SW,225,7.0,11.0,82,0.00,,,0.00,meteohub,2013-02-22 21:56:00,
2013-02-22 16:59:00,76.5,70.5,30.01,South,180,8.0,11.0,82,0.00,,,0.00,meteohub,2013-02-22 21:59:00,
2013-02-22 17:01:00,76.3,70.3,30.02,SW,225,8.0,11.0,82,0.00,,,0.00,meteohub,2013-02-22 22:01:00,
2013-02-22 17:02:00,76.1,70.2,30.02,SW,225,5.0,11.0,82,0.00,,,0.00,meteohub,2013-02-22 22:02:00,
2013-02-22 17:05:00,75.7,70.2,30.02,SW,225,4.0,11.0,83,0.00,,,0.00,meteohub,2013-02-22 22:05:00,
2013-02-22 17:06:00,75.7,70.2,30.02,SW,225,11.0,11.0,83,0.00,,,0.00,meteohub,2013-02-22 22:06:00,
2013-02-22 17:08:00,75.4,70.2,30.02,SE,135,5.0,11.0,84,0.00,,,0.00,meteohub,2013-02-22 22:08:00,
2013-02-22 17:09:00,75.4,70.2,30.02,NNW,338,7.0,11.0,84,0.00,,,0.00,meteohub,2013-02-22 22:09:00,
2013-02-22 17:11:00,75.2,70.0,30.01,SW,225,11.0,11.0,84,0.00,,,0.00,meteohub,2013-02-22 22:11:00,
2013-02-22 17:12:00,75.0,70.2,30.02,SW,225,11.0,11.0,85,0.00,,,0.00,meteohub,2013-02-22 22:12:00,
2013-02-22 17:13:00,75.0,70.2,30.02,SW,225,11.0,11.0,85,0.00,,,0.00,meteohub,2013-02-22 22:13:00,
2013-02-22 17:16:00,74.5,70.0,30.01,SW,225,8.0,11.0,86,0.00,,,0.00,meteohub,2013-02-22 22:16:00,
2013-02-22 17:17:00,74.3,69.8,30.01,SW,225,9.0,11.0,86,0.00,,,0.00,meteohub,2013-02-22 22:17:00,
2013-02-22 17:18:00,74.1,69.6,30.01,NE,45,12.0,12.0,86,0.00,,,0.00,meteohub,2013-02-22 22:18:00,
2013-02-22 17:19:00,73.9,69.4,30.02,SW,225,7.0,11.0,86,0.00,,,0.00,meteohub,2013-02-22 22:19:00,
2013-02-22 17:21:00,73.9,69.8,30.02,South,180,8.0,14.0,87,0.00,,,0.00,meteohub,2013-02-22 22:21:00,
2013-02-22 17:22:00,73.9,69.8,30.02,South,180,8.0,14.0,87,0.00,,,0.00,meteohub,2013-02-22 22:22:00,
2013-02-22 17:24:00,73.8,69.6,30.02,SW,225,7.0,14.0,87,0.00,,,0.00,meteohub,2013-02-22 22:24:00,
2013-02-22 17:27:00,73.6,69.4,30.01,West,270,5.0,14.0,87,0.00,,,0.00,meteohub,2013-02-22 22:27:00,
2013-02-22 17:30:00,73.4,69.3,30.02,West,270,8.0,12.0,87,0.00,,,0.00,meteohub,2013-02-22 22:30:00,
2013-02-22 17:32:00,73.4,69.6,30.01,SW,225,10.0,12.0,88,0.00,,,0.00,meteohub,2013-02-22 22:32:00,
2013-02-22 17:33:00,73.4,69.6,30.01,SW,225,10.0,12.0,88,0.00,,,0.00,meteohub,2013-02-22 22:33:00,
2013-02-22 17:35:00,73.8,70.0,30.01,SW,225,8.0,12.0,88,0.00,,,0.00,meteohub,2013-02-22 22:35:00,
2013-02-22 17:37:00,73.9,69.8,30.01,North,0,10.0,11.0,87,0.00,,,0.00,meteohub,2013-02-22 22:37:00,
2013-02-22 17:39:00,74.1,70.0,30.02,South,180,7.0,11.0,87,0.00,,,0.00,meteohub,2013-02-22 22:39:00,
2013-02-22 17:41:00,74.1,70.0,30.02,South,180,12.0,12.0,87,0.00,,,0.00,meteohub,2013-02-22 22:41:00,
2013-02-22 17:42:00,74.1,70.0,30.01,SW,225,7.0,10.0,87,0.00,,,0.00,meteohub,2013-02-22 22:42:00,
2013-02-22 17:45:00,74.1,70.0,30.02,SW,225,5.0,10.0,87,0.00,,,0.00,meteohub,2013-02-22 22:45:00,
2013-02-22 17:47:00,74.3,70.2,30.02,SW,225,8.0,12.0,87,0.00,,,0.00,meteohub,2013-02-22 22:47:00,
2013-02-22 17:52:00,74.1,70.0,30.01,NNE,23,5.0,12.0,87,0.00,,,0.00,meteohub,2013-02-22 22:52:00,
2013-02-22 17:53:00,73.9,69.8,30.01,SE,135,7.0,12.0,87,0.00,,,0.00,meteohub,2013-02-22 22:53:00,
2013-02-22 17:57:00,73.8,69.6,30.02,SW,225,8.0,12.0,87,0.00,,,0.00,meteohub,2013-02-22 22:57:00,
2013-02-22 17:58:00,73.6,69.4,30.02,East,90,10.0,12.0,87,0.00,,,0.00,meteohub,2013-02-22 22:58:00,
2013-02-22 18:02:00,73.2,69.1,30.02,SW,225,8.0,17.0,87,0.00,,,0.00,meteohub,2013-02-22 23:02:00,
2013-02-22 18:03:00,73.2,69.1,30.02,South,180,5.0,17.0,87,0.00,,,0.00,meteohub,2013-02-22 23:03:00,
2013-02-22 18:04:00,73.2,69.1,30.02,South,180,5.0,17.0,87,0.00,,,0.00,meteohub,2013-02-22 23:04:00,
2013-02-22 18:06:00,73.0,68.9,30.02,SE,135,3.0,17.0,87,0.00,,,0.00,meteohub,2013-02-22 23:06:00,
2013-02-22 18:07:00,73.0,68.9,30.02,South,180,6.0,17.0,87,0.00,,,0.00,meteohub,2013-02-22 23:07:00,
2013-02-22 18:08:00,72.9,68.7,30.02,South,180,6.0,17.0,87,0.00,,,0.00,meteohub,2013-02-22 23:08:00,
2013-02-22 18:11:00,72.9,68.7,30.02,SE,135,4.0,17.0,87,0.00,,,0.00,meteohub,2013-02-22 23:11:00,
2013-02-22 18:12:00,72.9,68.7,30.03,SW,225,9.0,17.0,87,0.00,,,0.00,meteohub,2013-02-22 23:12:00,
2013-02-22 18:15:00,72.5,68.7,30.02,South,180,4.0,17.0,88,0.00,,,0.00,meteohub,2013-02-22 23:15:00,
2013-02-22 18:16:00,72.5,68.7,30.03,SW,225,9.0,11.0,88,0.00,,,0.00,meteohub,2013-02-22 23:16:00,
2013-02-22 18:17:00,72.5,68.7,30.02,SW,225,4.0,11.0,88,0.00,,,0.00,meteohub,2013-02-22 23:17:00,
2013-02-22 18:18:00,72.5,68.7,30.03,South,180,7.0,11.0,88,0.00,,,0.00,meteohub,2013-02-22 23:18:00,
2013-02-22 18:20:00,72.3,68.5,30.03,NNW,338,4.0,11.0,88,0.00,,,0.00,meteohub,2013-02-22 23:20:00,
2013-02-22 18:22:00,72.1,68.7,30.02,SW,225,8.0,11.0,89,0.00,,,0.00,meteohub,2013-02-22 23:22:00,
2013-02-22 18:23:00,72.1,68.7,30.02,SW,225,8.0,11.0,89,0.00,,,0.00,meteohub,2013-02-22 23:23:00,
2013-02-22 18:25:00,72.0,68.5,30.02,SE,135,8.0,11.0,89,0.00,,,0.00,meteohub,2013-02-22 23:25:00,
2013-02-22 18:27:00,72.0,68.5,30.03,SW,225,6.0,11.0,89,0.00,,,0.00,meteohub,2013-02-22 23:27:00,
2013-02-22 18:29:00,71.8,68.7,30.03,SW,225,6.0,11.0,90,0.00,,,0.00,meteohub,2013-02-22 23:29:00,
2013-02-22 18:32:00,71.8,68.7,30.03,South,180,4.0,9.0,90,0.00,,,0.00,meteohub,2013-02-22 23:32:00,
2013-02-22 18:33:00,71.6,68.5,30.03,SW,225,5.0,9.0,90,0.00,,,0.00,meteohub,2013-02-22 23:33:00,
2013-02-22 18:34:00,71.6,68.5,30.03,SW,225,4.0,9.0,90,0.00,,,0.00,meteohub,2013-02-22 23:34:00,
2013-02-22 18:35:00,71.6,68.5,30.03,SW,225,4.0,8.0,90,0.00,,,0.00,meteohub,2013-02-22 23:35:00,
2013-02-22 18:37:00,71.6,68.9,30.03,SW,225,3.0,8.0,91,0.00,,,0.00,meteohub,2013-02-22 23:37:00,
2013-02-22 18:39:00,71.6,68.9,30.03,South,180,9.0,9.0,91,0.00,,,0.00,meteohub,2013-02-22 23:39:00,
2013-02-22 18:40:00,71.4,68.9,30.03,SW,225,2.0,9.0,92,0.00,,,0.00,meteohub,2013-02-22 23:40:00,
2013-02-22 18:41:00,71.4,68.9,30.03,North,0,6.0,9.0,92,0.00,,,0.00,meteohub,2013-02-22 23:41:00,
2013-02-22 18:42:00,71.4,68.9,30.03,South,180,8.0,9.0,92,0.00,,,0.00,meteohub,2013-02-22 23:42:00,
2013-02-22 18:45:00,71.4,68.9,30.03,South,180,4.0,9.0,92,0.00,,,0.00,meteohub,2013-02-22 23:45:00,
2013-02-22 18:46:00,71.4,68.9,30.03,South,180,4.0,9.0,92,0.00,,,0.00,meteohub,2013-02-22 23:46:00,
2013-02-22 18:48:00,71.4,68.9,30.03,South,180,6.0,9.0,92,0.00,,,0.00,meteohub,2013-02-22 23:48:00,
2013-02-22 18:50:00,71.2,68.7,30.03,SW,225,5.0,9.0,92,0.00,,,0.00,meteohub,2013-02-22 23:50:00,
2013-02-22 18:53:00,71.2,68.7,30.03,NNW,338,4.0,9.0,92,0.00,,,0.00,meteohub,2013-02-22 23:53:00,
2013-02-22 18:54:00,71.2,68.7,30.03,SW,225,6.0,9.0,92,0.00,,,0.00,meteohub,2013-02-22 23:54:00,
2013-02-22 18:55:00,71.2,68.7,30.03,SW,225,6.0,9.0,92,0.00,,,0.00,meteohub,2013-02-22 23:55:00,
2013-02-22 18:58:00,71.1,68.5,30.03,South,180,4.0,8.0,92,0.00,,,0.00,meteohub,2013-02-22 23:58:00,
2013-02-22 19:00:00,71.1,68.5,30.03,West,270,4.0,8.0,92,0.00,,,0.00,meteohub,2013-02-23 00:00:00,
2013-02-22 19:01:00,71.1,68.5,30.03,SW,225,7.0,7.0,92,0.00,,,0.00,meteohub,2013-02-23 00:01:00,
2013-02-22 19:05:00,71.1,68.5,30.03,SW,225,6.0,7.0,92,0.00,,,0.00,meteohub,2013-02-23 00:05:00,
2013-02-22 19:06:00,71.1,68.5,30.03,SW,225,4.0,7.0,92,0.00,,,0.00,meteohub,2013-02-23 00:06:00,
2013-02-22 19:09:00,71.1,68.5,30.03,NW,315,3.0,7.0,92,0.00,,,0.00,meteohub,2013-02-23 00:09:00,
2013-02-22 19:11:00,71.1,68.5,30.03,SW,225,4.0,8.0,92,0.00,,,0.00,meteohub,2013-02-23 00:11:00,
2013-02-22 19:12:00,71.1,68.9,30.03,South,180,2.0,8.0,93,0.00,,,0.00,meteohub,2013-02-23 00:12:00,
2013-02-22 19:14:00,70.9,68.7,30.03,SW,225,4.0,8.0,93,0.00,,,0.00,meteohub,2013-02-23 00:14:00,
2013-02-22 19:16:00,70.9,68.7,30.03,South,180,6.0,8.0,93,0.00,,,0.00,meteohub,2013-02-23 00:16:00,
2013-02-22 19:17:00,70.9,68.7,30.03,SE,135,6.0,8.0,93,0.00,,,0.00,meteohub,2013-02-23 00:17:00,
2013-02-22 19:20:00,70.9,68.7,30.03,South,180,4.0,8.0,93,0.00,,,0.00,meteohub,2013-02-23 00:20:00,
2013-02-22 19:21:00,70.9,68.7,30.03,SW,225,8.0,8.0,93,0.00,,,0.00,meteohub,2013-02-23 00:21:00,
2013-02-22 19:22:00,70.9,68.7,30.03,South,180,8.0,8.0,93,0.00,,,0.00,meteohub,2013-02-23 00:22:00,
2013-02-22 19:26:00,70.9,68.4,30.03,South,180,4.0,8.0,92,0.00,,,0.00,meteohub,2013-02-23 00:26:00,
2013-02-22 19:27:00,70.9,68.4,30.03,SW,225,4.0,8.0,92,0.00,,,0.00,meteohub,2013-02-23 00:27:00,
2013-02-22 19:28:00,70.9,68.4,30.03,East,90,5.0,8.0,92,0.00,,,0.00,meteohub,2013-02-23 00:28:00,
2013-02-22 19:29:00,70.9,68.4,30.03,South,180,4.0,8.0,92,0.00,,,0.00,meteohub,2013-02-23 00:29:00,
2013-02-22 19:32:00,70.9,68.4,30.03,SW,225,11.0,11.0,92,0.00,,,0.00,meteohub,2013-02-23 00:32:00,
2013-02-22 19:33:00,70.9,68.4,30.03,South,180,4.0,8.0,92,0.00,,,0.00,meteohub,2013-02-23 00:33:00,
2013-02-22 19:34:00,70.9,68.4,30.03,SW,225,4.0,8.0,92,0.00,,,0.00,meteohub,2013-02-23 00:34:00,
2013-02-22 19:38:00,70.9,68.4,30.03,SW,225,8.0,11.0,92,0.00,,,0.00,meteohub,2013-02-23 00:38:00,
2013-02-22 19:39:00,70.9,68.4,30.03,SE,135,6.0,11.0,92,0.00,,,0.00,meteohub,2013-02-23 00:39:00,
2013-02-22 19:42:00,70.9,68.4,30.04,SW,225,8.0,11.0,92,0.00,,,0.00,meteohub,2013-02-23 00:42:00,
2013-02-22 19:45:00,70.9,68.4,30.04,South,180,4.0,11.0,92,0.00,,,0.00,meteohub,2013-02-23 00:45:00,
2013-02-22 19:46:00,70.9,68.4,30.04,South,180,4.0,11.0,92,0.00,,,0.00,meteohub,2013-02-23 00:46:00,
2013-02-22 19:47:00,70.9,68.4,30.04,West,270,4.0,11.0,92,0.00,,,0.00,meteohub,2013-02-23 00:47:00,
2013-02-22 19:50:00,70.9,68.4,30.04,South,180,4.0,10.0,92,0.00,,,0.00,meteohub,2013-02-23 00:50:00,
2013-02-22 19:51:00,70.9,68.4,30.04,SE,135,4.0,10.0,92,0.00,,,0.00,meteohub,2013-02-23 00:51:00,
2013-02-22 19:52:00,70.9,68.4,30.04,WSW,248,4.0,10.0,92,0.00,,,0.00,meteohub,2013-02-23 00:52:00,
2013-02-22 19:56:00,70.7,68.2,30.04,SE,135,5.0,10.0,92,0.00,,,0.00,meteohub,2013-02-23 00:56:00,
2013-02-22 19:57:00,70.7,68.2,30.04,SW,225,4.0,10.0,92,0.00,,,0.00,meteohub,2013-02-23 00:57:00,
2013-02-22 20:02:00,70.7,68.5,30.04,SW,225,7.0,10.0,93,0.00,,,0.00,meteohub,2013-02-23 01:02:00,
2013-02-22 20:03:00,70.7,68.5,30.04,SW,225,5.0,10.0,93,0.00,,,0.00,meteohub,2013-02-23 01:03:00,
2013-02-22 20:04:00,70.5,68.4,30.04,SW,225,5.0,10.0,93,0.00,,,0.00,meteohub,2013-02-23 01:04:00,
2013-02-22 20:07:00,70.5,68.4,30.04,SW,225,4.0,7.0,93,0.00,,,0.00,meteohub,2013-02-23 01:07:00,
2013-02-22 20:09:00,70.5,68.4,30.04,West,270,4.0,7.0,93,0.00,,,0.00,meteohub,2013-02-23 01:09:00,
2013-02-22 20:11:00,70.5,68.4,30.04,SW,225,4.0,7.0,93,0.00,,,0.00,meteohub,2013-02-23 01:11:00,
2013-02-22 20:12:00,70.5,68.4,30.04,SW,225,4.0,7.0,93,0.00,,,0.00,meteohub,2013-02-23 01:12:00,
2013-02-22 20:15:00,70.5,68.4,30.04,SW,225,4.0,7.0,93,0.00,,,0.00,meteohub,2013-02-23 01:15:00,
2013-02-22 20:16:00,70.5,68.4,30.04,South,180,5.0,7.0,93,0.00,,,0.00,meteohub,2013-02-23 01:16:00,
2013-02-22 20:17:00,70.5,68.4,30.04,North,0,4.0,7.0,93,0.00,,,0.00,meteohub,2013-02-23 01:17:00,
2013-02-22 20:18:00,70.5,68.4,30.04,North,0,4.0,7.0,93,0.00,,,0.00,meteohub,2013-02-23 01:18:00,
2013-02-22 20:22:00,70.3,68.2,30.04,South,180,6.0,6.0,93,0.00,,,0.00,meteohub,2013-02-23 01:22:00,
2013-02-22 20:23:00,70.3,68.2,30.04,SW,225,4.0,6.0,93,0.00,,,0.00,meteohub,2013-02-23 01:23:00,
2013-02-22 20:24:00,70.3,68.2,30.04,South,180,6.0,6.0,93,0.00,,,0.00,meteohub,2013-02-23 01:24:00,
2013-02-22 20:27:00,70.3,68.2,30.04,South,180,6.0,8.0,93,0.00,,,0.00,meteohub,2013-02-23 01:27:00,
2013-02-22 20:28:00,70.3,68.2,30.04,SW,225,4.0,8.0,93,0.00,,,0.00,meteohub,2013-02-23 01:28:00,
2013-02-22 20:32:00,70.3,68.2,30.04,WNW,293,6.0,8.0,93,0.00,,,0.00,meteohub,2013-02-23 01:32:00,
2013-02-22 20:33:00,70.3,68.2,30.04,West,270,3.0,8.0,93,0.00,,,0.00,meteohub,2013-02-23 01:33:00,
2013-02-22 20:34:00,70.3,68.2,30.04,South,180,6.0,8.0,93,0.00,,,0.00,meteohub,2013-02-23 01:34:00,
2013-02-22 20:39:00,70.2,68.0,30.04,SW,225,4.0,8.0,93,0.00,,,0.00,meteohub,2013-02-23 01:39:00,
2013-02-22 20:41:00,70.2,68.0,30.04,South,180,4.0,8.0,93,0.00,,,0.00,meteohub,2013-02-23 01:41:00,
2013-02-22 20:44:00,70.2,68.4,30.04,South,180,4.0,8.0,94,0.00,,,0.00,meteohub,2013-02-23 01:44:00,
2013-02-22 20:45:00,70.0,68.2,30.04,SE,135,4.0,8.0,94,0.00,,,0.00,meteohub,2013-02-23 01:45:00,
2013-02-22 20:49:00,70.0,68.2,30.04,SW,225,7.0,8.0,94,0.00,,,0.00,meteohub,2013-02-23 01:49:00,
2013-02-22 20:50:00,70.0,68.2,30.04,SW,225,2.0,8.0,94,0.00,,,0.00,meteohub,2013-02-23 01:50:00,
2013-02-22 20:53:00,70.0,68.2,30.04,SW,225,4.0,7.0,94,0.00,,,0.00,meteohub,2013-02-23 01:53:00,
2013-02-22 20:55:00,70.0,68.2,30.05,SW,225,5.0,7.0,94,0.00,,,0.00,meteohub,2013-02-23 01:55:00,
2013-02-22 20:56:00,70.0,68.2,30.05,SW,225,5.0,7.0,94,0.00,,,0.00,meteohub,2013-02-23 01:56:00,
2013-02-22 20:58:00,69.8,68.0,30.04,SW,225,4.0,7.0,94,0.00,,,0.00,meteohub,2013-02-23 01:58:00,
2013-02-22 21:00:00,69.8,68.0,30.04,SE,135,4.0,7.0,94,0.00,,,0.00,meteohub,2013-02-23 02:00:00,
2013-02-22 21:01:00,69.8,68.0,30.04,SW,225,2.0,7.0,94,0.00,,,0.00,meteohub,2013-02-23 02:01:00,
2013-02-22 21:02:00,69.8,68.0,30.05,SW,225,3.0,7.0,94,0.00,,,0.00,meteohub,2013-02-23 02:02:00,
2013-02-22 21:04:00,69.8,68.0,30.04,South,180,3.0,7.0,94,0.00,,,0.00,meteohub,2013-02-23 02:04:00,
2013-02-22 21:06:00,69.8,68.0,30.05,SW,225,3.0,5.0,94,0.00,,,0.00,meteohub,2013-02-23 02:06:00,
2013-02-22 21:08:00,69.6,68.2,30.05,South,180,2.0,5.0,95,0.00,,,0.00,meteohub,2013-02-23 02:08:00,
2013-02-22 21:10:00,69.6,68.2,30.05,SE,135,1.0,5.0,95,0.00,,,0.00,meteohub,2013-02-23 02:10:00,
2013-02-22 21:11:00,69.6,68.2,30.05,SE,135,0.0,5.0,95,0.00,,,0.00,meteohub,2013-02-23 02:11:00,
2013-02-22 21:14:00,69.4,68.0,30.05,South,180,2.0,5.0,95,0.00,,,0.00,meteohub,2013-02-23 02:14:00,
2013-02-22 21:15:00,69.4,68.0,30.05,SW,225,2.0,4.0,95,0.00,,,0.00,meteohub,2013-02-23 02:15:00,
2013-02-22 21:16:00,69.4,68.0,30.05,SW,225,2.0,4.0,95,0.00,,,0.00,meteohub,2013-02-23 02:16:00,
2013-02-22 21:17:00,69.4,68.0,30.05,SW,225,2.0,4.0,95,0.00,,,0.00,meteohub,2013-02-23 02:17:00,
2013-02-22 21:21:00,69.3,67.8,30.05,South,180,1.0,3.0,95,0.00,,,0.00,meteohub,2013-02-23 02:21:00,
2013-02-22 21:22:00,69.3,67.8,30.05,South,180,1.0,3.0,95,0.00,,,0.00,meteohub,2013-02-23 02:22:00,
2013-02-22 21:23:00,69.3,67.8,30.05,SW,225,0.0,3.0,95,0.00,,,0.00,meteohub,2013-02-23 02:23:00,
2013-02-22 21:25:00,69.1,67.6,30.05,NW,315,3.0,3.0,95,0.00,,,0.00,meteohub,2013-02-23 02:25:00,
2013-02-22 21:27:00,69.1,67.6,30.05,SW,225,2.0,3.0,95,0.00,,,0.00,meteohub,2013-02-23 02:27:00,
2013-02-22 21:28:00,69.1,67.6,30.05,South,180,2.0,3.0,95,0.00,,,0.00,meteohub,2013-02-23 02:28:00,
2013-02-22 21:31:00,69.1,67.6,30.05,South,180,2.0,4.0,95,0.00,,,0.00,meteohub,2013-02-23 02:31:00,
2013-02-22 21:33:00,69.1,67.6,30.05,South,180,4.0,4.0,95,0.00,,,0.00,meteohub,2013-02-23 02:33:00,
2013-02-22 21:36:00,69.1,67.8,30.06,South,180,2.0,4.0,96,0.00,,,0.00,meteohub,2013-02-23 02:36:00,
2013-02-22 21:37:00,69.1,67.8,30.06,South,180,2.0,4.0,96,0.00,,,0.00,meteohub,2013-02-23 02:37:00,
2013-02-22 21:38:00,69.1,67.8,30.05,South,180,2.0,4.0,96,0.00,,,0.00,meteohub,2013-02-23 02:38:00,
2013-02-22 21:41:00,69.1,67.8,30.06,South,180,3.0,6.0,96,0.00,,,0.00,meteohub,2013-02-23 02:41:00,
2013-02-22 21:42:00,69.1,67.8,30.05,South,180,2.0,6.0,96,0.00,,,0.00,meteohub,2013-02-23 02:42:00,
2013-02-22 21:43:00,69.1,67.8,30.05,SW,225,4.0,6.0,96,0.00,,,0.00,meteohub,2013-02-23 02:43:00,
2013-02-22 21:45:00,69.1,67.8,30.05,West,270,3.0,6.0,96,0.00,,,0.00,meteohub,2013-02-23 02:45:00,
2013-02-22 21:47:00,69.1,67.8,30.05,SE,135,1.0,6.0,96,0.00,,,0.00,meteohub,2013-02-23 02:47:00,
2013-02-22 21:48:00,69.1,67.8,30.05,South,180,4.0,6.0,96,0.00,,,0.00,meteohub,2013-02-23 02:48:00,
2013-02-22 21:49:00,69.1,67.8,30.05,South,180,4.0,6.0,96,0.00,,,0.00,meteohub,2013-02-23 02:49:00,
2013-02-22 21:51:00,69.1,67.8,30.05,South,180,4.0,4.0,96,0.00,,,0.00,meteohub,2013-02-23 02:51:00,
2013-02-22 21:52:00,69.1,67.8,30.05,SW,225,5.0,5.0,96,0.00,,,0.00,meteohub,2013-02-23 02:52:00,
2013-02-22 21:54:00,69.1,67.8,30.05,SW,225,1.0,4.0,96,0.00,,,0.00,meteohub,2013-02-23 02:54:00,
2013-02-22 21:56:00,69.1,67.8,30.05,East,90,2.0,5.0,96,0.00,,,0.00,meteohub,2013-02-23 02:56:00,
2013-02-22 21:58:00,69.1,68.2,30.05,NE,45,2.0,5.0,97,0.00,,,0.00,meteohub,2013-02-23 02:58:00,
2013-02-22 22:00:00,69.1,68.2,30.05,SW,225,3.0,7.0,97,0.00,,,0.00,meteohub,2013-02-23 03:00:00,
2013-02-22 22:01:00,69.1,68.2,30.05,NE,45,3.0,7.0,97,0.00,,,0.00,meteohub,2013-02-23 03:01:00,
2013-02-22 22:02:00,69.1,68.2,30.05,East,90,3.0,7.0,97,0.00,,,0.00,meteohub,2013-02-23 03:02:00,
2013-02-22 22:06:00,69.1,68.2,30.05,SE,135,2.0,7.0,97,0.00,,,0.00,meteohub,2013-02-23 03:06:00,
2013-02-22 22:07:00,69.1,68.2,30.05,SE,135,2.0,7.0,97,0.00,,,0.00,meteohub,2013-02-23 03:07:00,
2013-02-22 22:08:00,69.1,68.2,30.05,South,180,5.0,7.0,97,0.00,,,0.00,meteohub,2013-02-23 03:08:00,
2013-02-22 22:12:00,69.1,68.2,30.05,SE,135,2.0,7.0,97,0.00,,,0.00,meteohub,2013-02-23 03:12:00,
2013-02-22 22:13:00,69.1,68.2,30.05,SE,135,2.0,7.0,97,0.00,,,0.00,meteohub,2013-02-23 03:13:00,
2013-02-22 22:14:00,69.1,68.2,30.05,SW,225,4.0,7.0,97,0.00,,,0.00,meteohub,2013-02-23 03:14:00,
2013-02-22 22:18:00,69.1,68.2,30.05,NW,315,2.0,5.0,97,0.00,,,0.00,meteohub,2013-02-23 03:18:00,
2013-02-22 22:19:00,69.1,68.2,30.05,NW,315,2.0,5.0,97,0.00,,,0.00,meteohub,2013-02-23 03:19:00,
2013-02-22 22:21:00,69.1,68.2,30.05,SW,225,2.0,6.0,97,0.00,,,0.00,meteohub,2013-02-23 03:21:00,
2013-02-22 22:24:00,69.1,68.2,30.05,NE,45,2.0,6.0,97,0.00,,,0.00,meteohub,2013-02-23 03:24:00,
2013-02-22 22:26:00,69.1,68.2,30.05,SW,225,4.0,6.0,97,0.00,,,0.00,meteohub,2013-02-23 03:26:00,
2013-02-22 22:27:00,69.1,68.2,30.05,South,180,2.0,6.0,97,0.00,,,0.00,meteohub,2013-02-23 03:27:00,
2013-02-22 22:29:00,69.3,68.4,30.05,SE,135,2.0,6.0,97,0.00,,,0.00,meteohub,2013-02-23 03:29:00,
2013-02-22 22:30:00,69.3,68.4,30.05,SW,225,2.0,6.0,97,0.00,,,0.00,meteohub,2013-02-23 03:30:00,
2013-02-22 22:32:00,69.3,68.4,30.05,SE,135,4.0,6.0,97,0.00,,,0.00,meteohub,2013-02-23 03:32:00,
2013-02-22 22:36:00,69.1,68.2,30.05,SE,135,2.0,6.0,97,0.00,,,0.00,meteohub,2013-02-23 03:36:00,
2013-02-22 22:37:00,69.1,68.2,30.05,South,180,3.0,6.0,97,0.00,,,0.00,meteohub,2013-02-23 03:37:00,
2013-02-22 22:38:00,69.1,68.2,30.05,SW,225,4.0,6.0,97,0.00,,,0.00,meteohub,2013-02-23 03:38:00,
2013-02-22 22:42:00,69.3,68.4,30.05,South,180,3.0,6.0,97,0.00,,,0.00,meteohub,2013-02-23 03:42:00,
2013-02-22 22:43:00,69.1,68.2,30.04,SW,225,4.0,6.0,97,0.00,,,0.00,meteohub,2013-02-23 03:43:00,
2013-02-22 22:46:00,69.1,68.2,30.05,SW,225,2.0,6.0,97,0.00,,,0.00,meteohub,2013-02-23 03:46:00,
2013-02-22 22:47:00,69.1,68.2,30.05,South,180,4.0,6.0,97,0.00,,,0.00,meteohub,2013-02-23 03:47:00,
2013-02-22 22:48:00,69.1,68.2,30.04,South,180,2.0,6.0,97,0.00,,,0.00,meteohub,2013-02-23 03:48:00,
2013-02-22 22:49:00,69.1,68.2,30.04,South,180,2.0,6.0,97,0.00,,,0.00,meteohub,2013-02-23 03:49:00,
2013-02-22 22:52:00,69.1,68.2,30.04,SE,135,2.0,5.0,97,0.00,,,0.00,meteohub,2013-02-23 03:52:00,
2013-02-22 22:53:00,69.1,68.2,30.04,West,270,4.0,5.0,97,0.00,,,0.00,meteohub,2013-02-23 03:53:00,
2013-02-22 22:54:00,69.1,68.2,30.04,East,90,3.0,5.0,97,0.00,,,0.00,meteohub,2013-02-23 03:54:00,
2013-02-22 22:56:00,68.9,68.0,30.04,SW,225,3.0,5.0,97,0.00,,,0.00,meteohub,2013-02-23 03:56:00,
2013-02-22 22:57:00,68.9,68.0,30.04,SW,225,3.0,5.0,97,0.00,,,0.00,meteohub,2013-02-23 03:57:00,
2013-02-22 22:59:00,68.9,68.4,30.04,NE,45,4.0,5.0,98,0.00,,,0.00,meteohub,2013-02-23 03:59:00,
2013-02-22 23:01:00,68.9,68.4,30.04,South,180,3.0,6.0,98,0.00,,,0.00,meteohub,2013-02-23 04:01:00,
2013-02-22 23:02:00,68.9,68.4,30.04,SW,225,4.0,6.0,98,0.00,,,0.00,meteohub,2013-02-23 04:02:00,
2013-02-22 23:03:00,68.9,68.4,30.04,West,270,2.0,6.0,98,0.00,,,0.00,meteohub,2013-02-23 04:03:00,
2013-02-22 23:05:00,68.9,68.4,30.04,West,270,1.0,6.0,98,0.00,,,0.00,meteohub,2013-02-23 04:05:00,
2013-02-22 23:07:00,68.9,68.4,30.04,SE,135,3.0,6.0,98,0.00,,,0.00,meteohub,2013-02-23 04:07:00,
2013-02-22 23:10:00,68.9,68.4,30.04,East,90,2.0,6.0,98,0.00,,,0.00,meteohub,2013-02-23 04:10:00,
2013-02-22 23:12:00,68.9,68.4,30.04,SE,135,1.0,6.0,98,0.00,,,0.00,meteohub,2013-02-23 04:12:00,
2013-02-22 23:13:00,68.9,68.4,30.04,SE,135,1.0,6.0,98,0.00,,,0.00,meteohub,2013-02-23 04:13:00,
2013-02-22 23:14:00,68.9,68.4,30.04,SE,135,2.0,6.0,98,0.00,,,0.00,meteohub,2013-02-23 04:14:00,
2013-02-22 23:18:00,69.3,68.7,30.04,SW,225,5.0,5.0,98,0.00,,,0.00,meteohub,2013-02-23 04:18:00,
2013-02-22 23:19:00,69.3,68.7,30.04,SW,225,4.0,4.0,98,0.00,,,0.00,meteohub,2013-02-23 04:19:00,
2013-02-22 23:20:00,69.3,68.7,30.04,South,180,5.0,5.0,98,0.00,,,0.00,meteohub,2013-02-23 04:20:00,
2013-02-22 23:22:00,69.3,68.7,30.04,SE,135,3.0,5.0,98,0.00,,,0.00,meteohub,2013-02-23 04:22:00,
2013-02-22 23:24:00,69.3,68.7,30.04,SW,225,2.0,5.0,98,0.00,,,0.00,meteohub,2013-02-23 04:24:00,
2013-02-22 23:27:00,69.3,68.7,30.04,SE,135,4.0,5.0,98,0.00,,,0.00,meteohub,2013-02-23 04:27:00,
2013-02-22 23:29:00,69.3,68.7,30.04,SW,225,5.0,5.0,98,0.00,,,0.00,meteohub,2013-02-23 04:29:00,
2013-02-22 23:30:00,69.3,68.7,30.04,South,180,2.0,5.0,98,0.00,,,0.00,meteohub,2013-02-23 04:30:00,
2013-02-22 23:31:00,69.3,68.7,30.04,South,180,4.0,7.0,98,0.00,,,0.00,meteohub,2013-02-23 04:31:00,
2013-02-22 23:33:00,69.3,68.7,30.03,West,270,3.0,7.0,98,0.00,,,0.00,meteohub,2013-02-23 04:33:00,
2013-02-22 23:35:00,69.3,68.7,30.03,SW,225,4.0,7.0,98,0.00,,,0.00,meteohub,2013-02-23 04:35:00,
2013-02-22 23:36:00,69.3,68.7,30.03,South,180,2.0,7.0,98,0.00,,,0.00,meteohub,2013-02-23 04:36:00,
2013-02-22 23:38:00,69.3,68.7,30.03,South,180,2.0,7.0,98,0.00,,,0.00,meteohub,2013-02-23 04:38:00,
2013-02-22 23:40:00,69.3,68.7,30.03,East,90,4.0,7.0,98,0.00,,,0.00,meteohub,2013-02-23 04:40:00,
2013-02-22 23:41:00,69.3,68.7,30.03,SE,135,3.0,6.0,98,0.00,,,0.00,meteohub,2013-02-23 04:41:00,
2013-02-22 23:43:00,69.3,68.7,30.03,North,0,4.0,6.0,98,0.00,,,0.00,meteohub,2013-02-23 04:43:00,
2013-02-22 23:44:00,69.3,68.7,30.03,SE,135,1.0,6.0,98,0.00,,,0.00,meteohub,2013-02-23 04:44:00,
2013-02-22 23:45:00,69.3,68.7,30.03,South,180,1.0,6.0,98,0.00,,,0.00,meteohub,2013-02-23 04:45:00,
2013-02-22 23:46:00,69.3,68.7,30.03,SW,225,4.0,6.0,98,0.00,,,0.00,meteohub,2013-02-23 04:46:00,
2013-02-22 23:50:00,69.3,68.7,30.03,NE,45,5.0,6.0,98,0.00,,,0.00,meteohub,2013-02-23 04:50:00,
2013-02-22 23:51:00,69.3,68.7,30.03,NE,45,5.0,6.0,98,0.00,,,0.00,meteohub,2013-02-23 04:51:00,
2013-02-22 23:53:00,69.3,68.7,30.02,SW,225,2.0,6.0,98,0.00,,,0.00,meteohub,2013-02-23 04:53:00,
2013-02-22 23:54:00,69.3,68.7,30.02,SW,225,2.0,6.0,98,0.00,,,0.00,meteohub,2013-02-23 04:54:00,
2013-02-22 23:56:00,69.3,68.7,30.02,SW,225,8.0,8.0,98,0.00,,,0.00,meteohub,2013-02-23 04:56:00,
2013-02-22 23:59:00,69.3,68.7,30.02,SW,225,4.0,7.0,98,0.00,,,0.00,meteohub,2013-02-23 04:59:00,